Observation data for Panhandle on 02/15/2017      Previous  Date  Next       Current Mesonet Observations  Soil Data  Daily Summary Page  Observations in Plain Language
KPA1 150600Z 31007KT M01/M04 A3018 RMK A01 T10101041  RH  080%=      5-min Rain = 0
KPA1 150601Z 31007KT M01/M04 A3018 RMK A01 T10091041  RH  079%=      5-min Rain = 0
KPA1 150602Z 31007KT M01/M04 A3018 RMK A01 T10091040  RH  079%=      5-min Rain = 0
KPA1 150603Z 31008KT M01/M04 A3018 RMK A01 T10091040  RH  079%=      5-min Rain = 0
KPA1 150604Z 31007KT M01/M04 A3018 RMK A01 T10081040  RH  079%=      5-min Rain = 0
KPA1 150605Z 31008KT M01/M04 A3018 RMK A01 T10091041  RH  079%=      5-min Rain = 0
KPA1 150606Z 31008KT M01/M04 A3018 RMK A01 T10091041  RH  079%=      5-min Rain = 0
KPA1 150607Z 31008KT M01/M04 A3018 RMK A01 T10101041  RH  079%=      5-min Rain = 0
KPA1 150608Z 31008KT M01/M04 A3018 RMK A01 T10101041  RH  079%=      5-min Rain = 0
KPA1 150609Z 31008KT M01/M04 A3018 RMK A01 T10101041  RH  079%=      5-min Rain = 0
KPA1 150610Z 31008KT M01/M04 A3018 RMK A01 T10091040  RH  079%=      5-min Rain = 0
KPA1 150611Z 31008KT M01/M04 A3018 RMK A01 T10091040  RH  079%=      5-min Rain = 0
KPA1 150612Z 31008KT M01/M04 A3018 RMK A01 T10081040  RH  079%=      5-min Rain = 0
KPA1 150613Z 31008KT M01/M04 A3018 RMK A01 T10091041  RH  079%=      5-min Rain = 0
KPA1 150614Z 31009KT M01/M04 A3018 RMK A01 T10091041  RH  079%=      5-min Rain = 0
KPA1 150615Z 31008KT M01/M04 A3018 RMK A01 T10081040  RH  079%=      5-min Rain = 0
KPA1 150616Z 31008KT M01/M04 A3018 RMK A01 T10081041  RH  079%=      5-min Rain = 0
KPA1 150617Z 31008KT M01/M04 A3018 RMK A01 T10081041  RH  079%=      5-min Rain = 0
KPA1 150618Z 31009KT M01/M04 A3018 RMK A01 T10081041  RH  079%=      5-min Rain = 0
KPA1 150619Z 31009KT M01/M04 A3018 RMK A01 T10081041  RH  078%=      5-min Rain = 0
KPA1 150620Z 31008KT M01/M04 A3018 RMK A01 T10081041  RH  078%=      5-min Rain = 0
KPA1 150621Z 31008KT M01/M04 A3018 RMK A01 T10081041  RH  078%=      5-min Rain = 0
KPA1 150622Z 31008KT M01/M04 A3018 RMK A01 T10081041  RH  078%=      5-min Rain = 0
KPA1 150623Z 31008KT M01/M04 A3018 RMK A01 T10071041  RH  078%=      5-min Rain = 0
KPA1 150624Z 31008KT M01/M04 A3018 RMK A01 T10071041  RH  078%=      5-min Rain = 0
KPA1 150625Z 31008KT M01/M04 A3018 RMK A01 T10071041  RH  078%=      5-min Rain = 0
KPA1 150626Z 31008KT M01/M04 A3018 RMK A01 T10071041  RH  078%=      5-min Rain = 0
KPA1 150627Z 31008KT M01/M04 A3018 RMK A01 T10071041  RH  078%=      5-min Rain = 0
KPA1 150628Z 31008KT M01/M04 A3018 RMK A01 T10071041  RH  078%=      5-min Rain = 0
KPA1 150629Z 31008KT M01/M04 A3018 RMK A01 T10071041  RH  077%=      5-min Rain = 0
KPA1 150630Z 31008KT M01/M04 A3018 RMK A01 T10071041  RH  078%=      5-min Rain = 0
KPA1 150631Z 30008KT M01/M04 A3018 RMK A01 T10071041  RH  078%=      5-min Rain = 0
KPA1 150632Z 30008KT M01/M04 A3018 RMK A01 T10071041  RH  078%=      5-min Rain = 0
KPA1 150633Z 30008KT M01/M04 A3018 RMK A01 T10071041  RH  078%=      5-min Rain = 0
KPA1 150634Z 30007KT M01/M04 A3018 RMK A01 T10071041  RH  078%=      5-min Rain = 0
KPA1 150635Z 30007KT M01/M04 A3018 RMK A01 T10081042  RH  078%=      5-min Rain = 0
KPA1 150636Z 30007KT M01/M04 A3018 RMK A01 T10091042  RH  078%=      5-min Rain = 0
KPA1 150637Z 30007KT M01/M04 A3018 RMK A01 T10091042  RH  079%=      5-min Rain = 0
KPA1 150638Z 30008KT M01/M04 A3018 RMK A01 T10091042  RH  079%=      5-min Rain = 0
KPA1 150639Z 30008KT M01/M04 A3018 RMK A01 T10101042  RH  079%=      5-min Rain = 0
KPA1 150640Z 30008KT M01/M04 A3018 RMK A01 T10101042  RH  079%=      5-min Rain = 0
KPA1 150641Z 30008KT M01/M04 A3018 RMK A01 T10111042  RH  079%=      5-min Rain = 0
KPA1 150642Z 30008KT M01/M04 A3018 RMK A01 T10091041  RH  079%=      5-min Rain = 0
KPA1 150643Z 30009KT M01/M04 A3018 RMK A01 T10081041  RH  079%=      5-min Rain = 0
KPA1 150644Z 30009KT M01/M04 A3018 RMK A01 T10081041  RH  078%=      5-min Rain = 0
KPA1 150645Z 30009KT M01/M04 A3018 RMK A01 T10091043  RH  078%=      5-min Rain = 0
KPA1 150646Z 30009KT M01/M04 A3018 RMK A01 T10101043  RH  079%=      5-min Rain = 0
KPA1 150647Z 30009KT M01/M04 A3018 RMK A01 T10111043  RH  079%=      5-min Rain = 0
KPA1 150648Z 30009KT M01/M04 A3018 RMK A01 T10121043  RH  079%=      5-min Rain = 0
KPA1 150649Z 30009KT M01/M04 A3018 RMK A01 T10131043  RH  080%=      5-min Rain = 0
KPA1 150650Z 30009KT M01/M04 A3018 RMK A01 T10131043  RH  080%=      5-min Rain = 0
KPA1 150651Z 30010KT M01/M04 A3018 RMK A01 T10141043  RH  080%=      5-min Rain = 0
KPA1 150652Z 30010KT M01/M04 A3018 RMK A01 T10141043  RH  080%=      5-min Rain = 0
KPA1 150653Z 30010KT M01/M04 A3018 RMK A01 T10141043  RH  081%=      5-min Rain = 0
KPA1 150654Z 30010KT M01/M04 A3018 RMK A01 T10131042  RH  081%=      5-min Rain = 0
KPA1 150655Z 30010KT M01/M04 A3018 RMK A01 T10131042  RH  080%=      5-min Rain = 0
KPA1 150656Z 30010KT M01/M04 A3018 RMK A01 T10131043  RH  080%=      5-min Rain = 0
KPA1 150657Z 30010KT M01/M04 A3018 RMK A01 T10131042  RH  081%=      5-min Rain = 0
KPA1 150658Z 30010KT M01/M04 A3018 RMK A01 T10131042  RH  081%=      5-min Rain = 0
KPA1 150659Z 30010KT M01/M04 A3018 RMK A01 T10131042  RH  081%=      5-min Rain = 0
KPA1 150700Z 30010KT M01/M04 A3018 RMK A01 T10131042  RH  081%=      5-min Rain = 0
KPA1 150701Z 30010KT M01/M04 A3018 RMK A01 T10131042  RH  081%=      5-min Rain = 0
KPA1 150702Z 30010KT M01/M04 A3018 RMK A01 T10131042  RH  081%=      5-min Rain = 0
KPA1 150703Z 30009KT M01/M04 A3018 RMK A01 T10131042  RH  080%=      5-min Rain = 0
KPA1 150704Z 30009KT M01/M04 A3018 RMK A01 T10131042  RH  081%=      5-min Rain = 0
KPA1 150705Z 30010KT M01/M04 A3018 RMK A01 T10131042  RH  081%=      5-min Rain = 0
KPA1 150706Z 30009KT M01/M04 A3018 RMK A01 T10131042  RH  081%=      5-min Rain = 0
KPA1 150707Z 30010KT M01/M04 A3018 RMK A01 T10131042  RH  081%=      5-min Rain = 0
KPA1 150708Z 30010KT M01/M04 A3018 RMK A01 T10131042  RH  081%=      5-min Rain = 0
KPA1 150709Z 30010KT M01/M04 A3018 RMK A01 T10131041  RH  081%=      5-min Rain = 0
KPA1 150710Z 30010KT M01/M04 A3018 RMK A01 T10121040  RH  081%=      5-min Rain = 0
KPA1 150711Z 30010KT M01/M04 A3018 RMK A01 T10111040  RH  080%=      5-min Rain = 0
KPA1 150712Z 30010KT M01/M04 A3018 RMK A01 T10101040  RH  080%=      5-min Rain = 0
KPA1 150713Z 30011KT M01/M04 A3018 RMK A01 T10101040  RH  080%=      5-min Rain = 0
KPA1 150714Z 31011KT M01/M04 A3018 RMK A01 T10081039  RH  079%=      5-min Rain = 0
KPA1 150715Z 31010KT M01/M04 A3018 RMK A01 T10051038  RH  078%=      5-min Rain = 0
KPA1 150716Z 30010KT M01/M04 A3018 RMK A01 T10051039  RH  078%=      5-min Rain = 0
KPA1 150717Z 31010KT M01/M04 A3018 RMK A01 T10061040  RH  078%=      5-min Rain = 0
KPA1 150718Z 31011KT M01/M04 A3018 RMK A01 T10061040  RH  078%=      5-min Rain = 0
KPA1 150719Z 31010KT M01/M04 A3018 RMK A01 T10071041  RH  078%=      5-min Rain = 0
KPA1 150720Z 31010KT M01/M04 A3018 RMK A01 T10071041  RH  078%=      5-min Rain = 0
KPA1 150721Z 31010KT M01/M04 A3018 RMK A01 T10081041  RH  078%=      5-min Rain = 0
KPA1 150722Z 31010KT M01/M04 A3018 RMK A01 T10081041  RH  078%=      5-min Rain = 0
KPA1 150723Z 30010KT M01/M04 A3018 RMK A01 T10081041  RH  078%=      5-min Rain = 0
KPA1 150724Z 31010KT M01/M04 A3018 RMK A01 T10081041  RH  078%=      5-min Rain = 0
KPA1 150725Z 31010KT M01/M04 A3018 RMK A01 T10081041  RH  078%=      5-min Rain = 0
KPA1 150726Z 31010KT M01/M04 A3018 RMK A01 T10081041  RH  078%=      5-min Rain = 0
KPA1 150727Z 31010KT M01/M04 A3018 RMK A01 T10081041  RH  078%=      5-min Rain = 0
KPA1 150728Z 31010KT M01/M04 A3018 RMK A01 T10081041  RH  078%=      5-min Rain = 0
KPA1 150729Z 31010KT M01/M04 A3018 RMK A01 T10081041  RH  078%=      5-min Rain = 0
KPA1 150730Z 31010KT M01/M04 A3018 RMK A01 T10081041  RH  078%=      5-min Rain = 0
KPA1 150731Z 31010KT M01/M04 A3018 RMK A01 T10081041  RH  078%=      5-min Rain = 0
KPA1 150732Z 31010KT M01/M04 A3018 RMK A01 T10081041  RH  078%=      5-min Rain = 0
KPA1 150733Z 30009KT M01/M04 A3018 RMK A01 T10081041  RH  078%=      5-min Rain = 0
KPA1 150734Z 30010KT M01/M04 A3018 RMK A01 T10091041  RH  079%=      5-min Rain = 0
KPA1 150735Z 30010KT M01/M04 A3018 RMK A01 T10091041  RH  079%=      5-min Rain = 0
KPA1 150736Z 31010KT M01/M04 A3018 RMK A01 T10091041  RH  078%=      5-min Rain = 0
KPA1 150737Z 31009KT M01/M04 A3018 RMK A01 T10091041  RH  079%=      5-min Rain = 0
KPA1 150738Z 31009KT M01/M04 A3018 RMK A01 T10091041  RH  079%=      5-min Rain = 0
KPA1 150739Z 31009KT M01/M04 A3018 RMK A01 T10101042  RH  079%=      5-min Rain = 0
KPA1 150740Z 31009KT M01/M04 A3018 RMK A01 T10101042  RH  079%=      5-min Rain = 0
KPA1 150741Z 31008KT M01/M04 A3018 RMK A01 T10111042  RH  079%=      5-min Rain = 0
KPA1 150742Z 31009KT M01/M04 A3018 RMK A01 T10111042  RH  079%=      5-min Rain = 0
KPA1 150743Z 31009KT M01/M04 A3018 RMK A01 T10111042  RH  079%=      5-min Rain = 0
KPA1 150744Z 31009KT M01/M04 A3018 RMK A01 T10111042  RH  080%=      5-min Rain = 0
KPA1 150745Z 31008KT M01/M04 A3018 RMK A01 T10111042  RH  080%=      5-min Rain = 0
KPA1 150746Z 31009KT M01/M04 A3018 RMK A01 T10111042  RH  080%=      5-min Rain = 0
KPA1 150747Z 31008KT M01/M04 A3018 RMK A01 T10121043  RH  080%=      5-min Rain = 0
KPA1 150748Z 31008KT M01/M04 A3018 RMK A01 T10121042  RH  080%=      5-min Rain = 0
KPA1 150749Z 31008KT M01/M04 A3018 RMK A01 T10121043  RH  080%=      5-min Rain = 0
KPA1 150750Z 31008KT M01/M04 A3018 RMK A01 T10121043  RH  080%=      5-min Rain = 0
KPA1 150751Z 31008KT M01/M04 A3018 RMK A01 T10121043  RH  080%=      5-min Rain = 0
KPA1 150752Z 31008KT M01/M04 A3018 RMK A01 T10131044  RH  080%=      5-min Rain = 0
KPA1 150753Z 31007KT M01/M04 A3018 RMK A01 T10121043  RH  080%=      5-min Rain = 0
KPA1 150754Z 31008KT M01/M04 A3018 RMK A01 T10121043  RH  079%=      5-min Rain = 0
KPA1 150755Z 31009KT M01/M04 A3018 RMK A01 T10121043  RH  079%=      5-min Rain = 0
KPA1 150756Z 31008KT M01/M04 A3018 RMK A01 T10121043  RH  079%=      5-min Rain = 0
KPA1 150757Z 31008KT M01/M04 A3018 RMK A01 T10121043  RH  079%=      5-min Rain = 0
KPA1 150758Z 31008KT M01/M04 A3018 RMK A01 T10111043  RH  079%=      5-min Rain = 0
KPA1 150759Z 31008KT M01/M04 A3019 RMK A01 T10111043  RH  079%=      5-min Rain = 0
KPA1 150800Z 31008KT M01/M04 A3019 RMK A01 T10111043  RH  079%=      5-min Rain = 0
KPA1 150801Z 31008KT M01/M04 A3019 RMK A01 T10091042  RH  078%=      5-min Rain = 0
KPA1 150802Z 31008KT M01/M04 A3019 RMK A01 T10091043  RH  078%=      5-min Rain = 0
KPA1 150803Z 31008KT M01/M04 A3019 RMK A01 T10101044  RH  078%=      5-min Rain = 0
KPA1 150804Z 31008KT M01/M04 A3019 RMK A01 T10121044  RH  078%=      5-min Rain = 0
KPA1 150805Z 31008KT M01/M04 A3019 RMK A01 T10121044  RH  079%=      5-min Rain = 0
KPA1 150806Z 31007KT M01/M04 A3019 RMK A01 T10111043  RH  079%=      5-min Rain = 0
KPA1 150807Z 31007KT M01/M05 A3019 RMK A01 T10131045  RH  079%=      5-min Rain = 0
KPA1 150808Z 31007KT M01/M05 A3019 RMK A01 T10131045  RH  079%=      5-min Rain = 0
KPA1 150809Z 31008KT M01/M04 A3019 RMK A01 T10141044  RH  080%=      5-min Rain = 0
KPA1 150810Z 31008KT M01/M04 A3018 RMK A01 T10141044  RH  080%=      5-min Rain = 0
KPA1 150811Z 31008KT M01/M04 A3018 RMK A01 T10141044  RH  080%=      5-min Rain = 0
KPA1 150812Z 31008KT M02/M05 A3019 RMK A01 T10151045  RH  080%=      5-min Rain = 0
KPA1 150813Z 31008KT M02/M05 A3019 RMK A01 T10161045  RH  080%=      5-min Rain = 0
KPA1 150814Z 31009KT M02/M05 A3019 RMK A01 T10161046  RH  081%=      5-min Rain = 0
KPA1 150815Z 31009KT M02/M05 A3019 RMK A01 T10171045  RH  081%=      5-min Rain = 0
KPA1 150816Z 31009KT M02/M05 A3019 RMK A01 T10171045  RH  081%=      5-min Rain = 0
KPA1 150817Z 31008KT M02/M05 A3019 RMK A01 T10171045  RH  081%=      5-min Rain = 0
KPA1 150818Z 31008KT M02/M05 A3019 RMK A01 T10171045  RH  081%=      5-min Rain = 0
KPA1 150819Z 31008KT M02/M05 A3019 RMK A01 T10171045  RH  081%=      5-min Rain = 0
KPA1 150820Z 31008KT M02/M05 A3019 RMK A01 T10171045  RH  081%=      5-min Rain = 0
KPA1 150821Z 31008KT M02/M05 A3019 RMK A01 T10171046  RH  081%=      5-min Rain = 0
KPA1 150822Z 31008KT M02/M05 A3019 RMK A01 T10181046  RH  081%=      5-min Rain = 0
KPA1 150823Z 31008KT M02/M05 A3019 RMK A01 T10181046  RH  081%=      5-min Rain = 0
KPA1 150824Z 31008KT M02/M05 A3019 RMK A01 T10181046  RH  081%=      5-min Rain = 0
KPA1 150825Z 31008KT M02/M05 A3019 RMK A01 T10181046  RH  081%=      5-min Rain = 0
KPA1 150826Z 31008KT M02/M05 A3019 RMK A01 T10181046  RH  081%=      5-min Rain = 0
KPA1 150827Z 31008KT M02/M05 A3019 RMK A01 T10181046  RH  081%=      5-min Rain = 0
KPA1 150828Z 31009KT M02/M05 A3019 RMK A01 T10171046  RH  081%=      5-min Rain = 0
KPA1 150829Z 31008KT M02/M05 A3019 RMK A01 T10161045  RH  081%=      5-min Rain = 0
KPA1 150830Z 31008KT M02/M05 A3019 RMK A01 T10151045  RH  080%=      5-min Rain = 0
KPA1 150831Z 31008KT M02/M05 A302 RMK A01 T10161046  RH  080%=      5-min Rain = 0
KPA1 150832Z 31008KT M02/M05 A302 RMK A01 T10161046  RH  080%=      5-min Rain = 0
KPA1 150833Z 31008KT M02/M05 A302 RMK A01 T10161046  RH  080%=      5-min Rain = 0
KPA1 150834Z 31008KT M02/M05 A302 RMK A01 T10171046  RH  080%=      5-min Rain = 0
KPA1 150835Z 31008KT M02/M05 A302 RMK A01 T10161046  RH  080%=      5-min Rain = 0
KPA1 150836Z 31008KT M02/M05 A302 RMK A01 T10161046  RH  080%=      5-min Rain = 0
KPA1 150837Z 31008KT M02/M05 A302 RMK A01 T10161046  RH  080%=      5-min Rain = 0
KPA1 150838Z 31008KT M02/M05 A302 RMK A01 T10151046  RH  080%=      5-min Rain = 0
KPA1 150839Z 31008KT M02/M05 A302 RMK A01 T10151046  RH  079%=      5-min Rain = 0
KPA1 150840Z 31008KT M02/M05 A302 RMK A01 T10151046  RH  079%=      5-min Rain = 0
KPA1 150841Z 31008KT M02/M05 A302 RMK A01 T10151046  RH  079%=      5-min Rain = 0
KPA1 150842Z 31008KT M02/M05 A302 RMK A01 T10161047  RH  079%=      5-min Rain = 0
KPA1 150843Z 31008KT M02/M05 A302 RMK A01 T10171047  RH  080%=      5-min Rain = 0
KPA1 150844Z 31008KT M02/M05 A302 RMK A01 T10171047  RH  080%=      5-min Rain = 0
KPA1 150845Z 31008KT M02/M05 A302 RMK A01 T10171047  RH  080%=      5-min Rain = 0
KPA1 150846Z 31009KT M02/M05 A3019 RMK A01 T10171046  RH  080%=      5-min Rain = 0
KPA1 150847Z 31008KT M02/M05 A3019 RMK A01 T10171047  RH  080%=      5-min Rain = 0
KPA1 150848Z 31009KT M02/M05 A3019 RMK A01 T10181047  RH  081%=      5-min Rain = 0
KPA1 150849Z 31010KT M02/M05 A3019 RMK A01 T10171046  RH  081%=      5-min Rain = 0
KPA1 150850Z 31009KT M02/M05 A3019 RMK A01 T10151045  RH  080%=      5-min Rain = 0
KPA1 150851Z 31009KT M01/M04 A3019 RMK A01 T10141044  RH  080%=      5-min Rain = 0
KPA1 150852Z 31009KT M01/M05 A3019 RMK A01 T10141045  RH  079%=      5-min Rain = 0
KPA1 150853Z 31008KT M02/M05 A3019 RMK A01 T10151046  RH  079%=      5-min Rain = 0
KPA1 150854Z 31008KT M02/M05 A3019 RMK A01 T10161047  RH  079%=      5-min Rain = 0
KPA1 150855Z 31008KT M02/M05 A3019 RMK A01 T10171048  RH  080%=      5-min Rain = 0
KPA1 150856Z 31008KT M02/M05 A3019 RMK A01 T10181048  RH  080%=      5-min Rain = 0
KPA1 150857Z 31008KT M02/M05 A3019 RMK A01 T10181048  RH  080%=      5-min Rain = 0
KPA1 150858Z 31008KT M02/M05 A3019 RMK A01 T10181047  RH  080%=      5-min Rain = 0
KPA1 150859Z 31008KT M02/M05 A3019 RMK A01 T10181047  RH  081%=      5-min Rain = 0
KPA1 150900Z 32009KT M02/M05 A3019 RMK A01 T10181048  RH  080%=      5-min Rain = 0
KPA1 150901Z 31009KT M02/M05 A3019 RMK A01 T10181048  RH  080%=      5-min Rain = 0
KPA1 150902Z 31009KT M02/M05 A3019 RMK A01 T10191048  RH  081%=      5-min Rain = 0
KPA1 150903Z 31009KT M02/M05 A3019 RMK A01 T10191048  RH  081%=      5-min Rain = 0
KPA1 150904Z 31009KT M02/M05 A3019 RMK A01 T10181048  RH  080%=      5-min Rain = 0
KPA1 150905Z 31009KT M02/M05 A3019 RMK A01 T10181048  RH  080%=      5-min Rain = 0
KPA1 150906Z 31009KT M02/M05 A3019 RMK A01 T10181047  RH  080%=      5-min Rain = 0
KPA1 150907Z 32009KT M02/M05 A3019 RMK A01 T10171047  RH  080%=      5-min Rain = 0
KPA1 150908Z 32008KT M01/M05 A3019 RMK A01 T10141046  RH  079%=      5-min Rain = 0
KPA1 150909Z 31009KT M01/M05 A3019 RMK A01 T10141047  RH  078%=      5-min Rain = 0
KPA1 150910Z 31009KT M01/M05 A3019 RMK A01 T10141047  RH  078%=      5-min Rain = 0
KPA1 150911Z 31009KT M02/M05 A3019 RMK A01 T10151048  RH  078%=      5-min Rain = 0
KPA1 150912Z 31009KT M02/M05 A3019 RMK A01 T10161048  RH  078%=      5-min Rain = 0
KPA1 150913Z 31009KT M02/M05 A3019 RMK A01 T10161049  RH  078%=      5-min Rain = 0
KPA1 150914Z 31009KT M02/M05 A3019 RMK A01 T10171048  RH  079%=      5-min Rain = 0
KPA1 150915Z 31008KT M02/M05 A302 RMK A01 T10161048  RH  079%=      5-min Rain = 0
KPA1 150916Z 31009KT M02/M05 A302 RMK A01 T10161048  RH  079%=      5-min Rain = 0
KPA1 150917Z 31008KT M02/M05 A302 RMK A01 T10161048  RH  079%=      5-min Rain = 0
KPA1 150918Z 31009KT M02/M05 A302 RMK A01 T10161048  RH  079%=      5-min Rain = 0
KPA1 150919Z 31009KT M02/M05 A302 RMK A01 T10161048  RH  079%=      5-min Rain = 0
KPA1 150920Z 31008KT M02/M05 A302 RMK A01 T10151047  RH  079%=      5-min Rain = 0
KPA1 150921Z 31008KT M02/M05 A302 RMK A01 T10151047  RH  079%=      5-min Rain = 0
KPA1 150922Z 31008KT M02/M05 A302 RMK A01 T10161048  RH  079%=      5-min Rain = 0
KPA1 150923Z 31008KT M02/M05 A302 RMK A01 T10161047  RH  079%=      5-min Rain = 0
KPA1 150924Z 31008KT M02/M05 A302 RMK A01 T10161048  RH  079%=      5-min Rain = 0
KPA1 150925Z 31008KT M02/M05 A302 RMK A01 T10171048  RH  079%=      5-min Rain = 0
KPA1 150926Z 31008KT M02/M05 A302 RMK A01 T10171048  RH  079%=      5-min Rain = 0
KPA1 150927Z 31008KT M02/M05 A302 RMK A01 T10171048  RH  079%=      5-min Rain = 0
KPA1 150928Z 31007KT M02/M05 A302 RMK A01 T10171048  RH  079%=      5-min Rain = 0
KPA1 150929Z 31008KT M02/M05 A302 RMK A01 T10181049  RH  080%=      5-min Rain = 0
KPA1 150930Z 31008KT M02/M05 A302 RMK A01 T10191049  RH  080%=      5-min Rain = 0
KPA1 150931Z 31007KT M02/M05 A302 RMK A01 T10191049  RH  080%=      5-min Rain = 0
KPA1 150932Z 31007KT M02/M05 A302 RMK A01 T10201050  RH  080%=      5-min Rain = 0
KPA1 150933Z 31008KT M02/M05 A302 RMK A01 T10201049  RH  081%=      5-min Rain = 0
KPA1 150934Z 31007KT M02/M05 A302 RMK A01 T10211049  RH  081%=      5-min Rain = 0
KPA1 150935Z 31007KT M02/M05 A302 RMK A01 T10211049  RH  081%=      5-min Rain = 0
KPA1 150936Z 31007KT M02/M05 A302 RMK A01 T10211050  RH  081%=      5-min Rain = 0
KPA1 150937Z 31007KT M02/M05 A302 RMK A01 T10221050  RH  081%=      5-min Rain = 0
KPA1 150938Z 31007KT M02/M05 A302 RMK A01 T10221050  RH  081%=      5-min Rain = 0
KPA1 150939Z 31007KT M02/M05 A302 RMK A01 T10231050  RH  082%=      5-min Rain = 0
KPA1 150940Z 31007KT M02/M05 A302 RMK A01 T10231049  RH  082%=      5-min Rain = 0
KPA1 150941Z 31007KT M02/M05 A302 RMK A01 T10221049  RH  082%=      5-min Rain = 0
KPA1 150942Z 31007KT M02/M05 A302 RMK A01 T10231050  RH  082%=      5-min Rain = 0
KPA1 150943Z 31007KT M02/M05 A302 RMK A01 T10231050  RH  082%=      5-min Rain = 0
KPA1 150944Z 31007KT M02/M05 A302 RMK A01 T10241051  RH  082%=      5-min Rain = 0
KPA1 150945Z 31007KT M03/M05 A302 RMK A01 T10251051  RH  082%=      5-min Rain = 0
KPA1 150946Z 31007KT M03/M05 A302 RMK A01 T10251051  RH  083%=      5-min Rain = 0
KPA1 150947Z 31007KT M03/M05 A302 RMK A01 T10261051  RH  083%=      5-min Rain = 0
KPA1 150948Z 31007KT M03/M05 A302 RMK A01 T10261051  RH  083%=      5-min Rain = 0
KPA1 150949Z 31007KT M03/M05 A302 RMK A01 T10261050  RH  083%=      5-min Rain = 0
KPA1 150950Z 31007KT M03/M05 A302 RMK A01 T10261050  RH  084%=      5-min Rain = 0
KPA1 150951Z 31007KT M03/M05 A302 RMK A01 T10261050  RH  083%=      5-min Rain = 0
KPA1 150952Z 31007KT M03/M05 A302 RMK A01 T10261050  RH  083%=      5-min Rain = 0
KPA1 150953Z 31007KT M03/M05 A302 RMK A01 T10271051  RH  083%=      5-min Rain = 0
KPA1 150954Z 31007KT M03/M05 A3021 RMK A01 T10271051  RH  083%=      5-min Rain = 0
KPA1 150955Z 31007KT M03/M05 A3021 RMK A01 T10271052  RH  083%=      5-min Rain = 0
KPA1 150956Z 31007KT M03/M05 A3021 RMK A01 T10281052  RH  083%=      5-min Rain = 0
KPA1 150957Z 31007KT M03/M05 A3021 RMK A01 T10281052  RH  084%=      5-min Rain = 0
KPA1 150958Z 31007KT M03/M05 A3021 RMK A01 T10281052  RH  084%=      5-min Rain = 0
KPA1 150959Z 31007KT M03/M05 A3021 RMK A01 T10291053  RH  084%=      5-min Rain = 0
KPA1 151000Z 31007KT M03/M05 A3021 RMK A01 T10301053  RH  084%=      5-min Rain = 0
KPA1 151001Z 31007KT M03/M05 A3021 RMK A01 T10301054  RH  084%=      5-min Rain = 0
KPA1 151002Z 31007KT M03/M05 A3021 RMK A01 T10311054  RH  084%=      5-min Rain = 0
KPA1 151003Z 31007KT M03/M06 A3021 RMK A01 T10321055  RH  084%=      5-min Rain = 0
KPA1 151004Z 31007KT M03/M06 A3021 RMK A01 T10321055  RH  085%=      5-min Rain = 0
KPA1 151005Z 31007KT M03/M06 A3021 RMK A01 T10331055  RH  085%=      5-min Rain = 0
KPA1 151006Z 31007KT M03/M06 A3021 RMK A01 T10331055  RH  085%=      5-min Rain = 0
KPA1 151007Z 31007KT M03/M06 A3021 RMK A01 T10331055  RH  085%=      5-min Rain = 0
KPA1 151008Z 31007KT M03/M05 A3021 RMK A01 T10331054  RH  085%=      5-min Rain = 0
KPA1 151009Z 31008KT M03/M05 A3021 RMK A01 T10331053  RH  085%=      5-min Rain = 0
KPA1 151010Z 31008KT M03/M05 A3021 RMK A01 T10321053  RH  085%=      5-min Rain = 0
KPA1 151011Z 31007KT M03/M05 A3021 RMK A01 T10311053  RH  085%=      5-min Rain = 0
KPA1 151012Z 31007KT M03/M05 A3021 RMK A01 T10311053  RH  085%=      5-min Rain = 0
KPA1 151013Z 31007KT M03/M05 A3021 RMK A01 T10311054  RH  084%=      5-min Rain = 0
KPA1 151014Z 31007KT M03/M05 A3021 RMK A01 T10311054  RH  085%=      5-min Rain = 0
KPA1 151015Z 31007KT M03/M05 A3021 RMK A01 T10311054  RH  085%=      5-min Rain = 0
KPA1 151016Z 31007KT M03/M05 A3021 RMK A01 T10311053  RH  085%=      5-min Rain = 0
KPA1 151017Z 31007KT M03/M05 A3021 RMK A01 T10321054  RH  085%=      5-min Rain = 0
KPA1 151018Z 31007KT M03/M06 A3021 RMK A01 T10331055  RH  085%=      5-min Rain = 0
KPA1 151019Z 31007KT M03/M06 A3021 RMK A01 T10331056  RH  085%=      5-min Rain = 0
KPA1 151020Z 31007KT M03/M06 A3021 RMK A01 T10331055  RH  085%=      5-min Rain = 0
KPA1 151021Z 31008KT M03/M06 A3021 RMK A01 T10341055  RH  085%=      5-min Rain = 0
KPA1 151022Z 31007KT M03/M06 A3021 RMK A01 T10341055  RH  085%=      5-min Rain = 0
KPA1 151023Z 30007KT M03/M06 A3021 RMK A01 T10341055  RH  085%=      5-min Rain = 0
KPA1 151024Z 31007KT M03/M06 A3021 RMK A01 T10341055  RH  085%=      5-min Rain = 0
KPA1 151025Z 31007KT M03/M06 A3021 RMK A01 T10341056  RH  085%=      5-min Rain = 0
KPA1 151026Z 30007KT M04/M06 A3021 RMK A01 T10351056  RH  085%=      5-min Rain = 0
KPA1 151027Z 31007KT M04/M06 A3021 RMK A01 T10351056  RH  085%=      5-min Rain = 0
KPA1 151028Z 31007KT M04/M06 A3021 RMK A01 T10351056  RH  085%=      5-min Rain = 0
KPA1 151029Z 31007KT M04/M06 A3021 RMK A01 T10351056  RH  085%=      5-min Rain = 0
KPA1 151030Z 31007KT M04/M06 A3021 RMK A01 T10351056  RH  085%=      5-min Rain = 0
KPA1 151031Z 30007KT M04/M06 A3021 RMK A01 T10351056  RH  085%=      5-min Rain = 0
KPA1 151032Z 31007KT M04/M06 A3021 RMK A01 T10351056  RH  085%=      5-min Rain = 0
KPA1 151033Z 31007KT M04/M06 A3021 RMK A01 T10351056  RH  086%=      5-min Rain = 0
KPA1 151034Z 31007KT M04/M06 A3021 RMK A01 T10351056  RH  086%=      5-min Rain = 0
KPA1 151035Z 31007KT M04/M06 A3021 RMK A01 T10351056  RH  086%=      5-min Rain = 0
KPA1 151036Z 30007KT M04/M06 A3021 RMK A01 T10351056  RH  086%=      5-min Rain = 0
KPA1 151037Z 31007KT M04/M06 A3021 RMK A01 T10351056  RH  086%=      5-min Rain = 0
KPA1 151038Z 30007KT M04/M06 A3021 RMK A01 T10361056  RH  086%=      5-min Rain = 0
KPA1 151039Z 31007KT M04/M06 A3021 RMK A01 T10361056  RH  086%=      5-min Rain = 0
KPA1 151040Z 30007KT M04/M06 A3021 RMK A01 T10361056  RH  086%=      5-min Rain = 0
KPA1 151041Z 30007KT M04/M06 A3021 RMK A01 T10361056  RH  086%=      5-min Rain = 0
KPA1 151042Z 30007KT M04/M06 A3021 RMK A01 T10361056  RH  086%=      5-min Rain = 0
KPA1 151043Z 30007KT M04/M06 A3021 RMK A01 T10361056  RH  086%=      5-min Rain = 0
KPA1 151044Z 30007KT M04/M06 A3021 RMK A01 T10361056  RH  086%=      5-min Rain = 0
KPA1 151045Z 30007KT M04/M06 A3021 RMK A01 T10361056  RH  086%=      5-min Rain = 0
KPA1 151046Z 30007KT M04/M06 A3021 RMK A01 T10361056  RH  086%=      5-min Rain = 0
KPA1 151047Z 30007KT M04/M06 A3021 RMK A01 T10361056  RH  086%=      5-min Rain = 0
KPA1 151048Z 30007KT M04/M06 A3021 RMK A01 T10361056  RH  086%=      5-min Rain = 0
KPA1 151049Z 30007KT M04/M06 A3021 RMK A01 T10371056  RH  086%=      5-min Rain = 0
KPA1 151050Z 30007KT M04/M06 A3021 RMK A01 T10371056  RH  086%=      5-min Rain = 0
KPA1 151051Z 31007KT M04/M06 A3021 RMK A01 T10371056  RH  086%=      5-min Rain = 0
KPA1 151052Z 30007KT M04/M06 A3021 RMK A01 T10381057  RH  086%=      5-min Rain = 0
KPA1 151053Z 30007KT M04/M06 A3021 RMK A01 T10371057  RH  087%=      5-min Rain = 0
KPA1 151054Z 30008KT M04/M06 A3021 RMK A01 T10381057  RH  087%=      5-min Rain = 0
KPA1 151055Z 30008KT M04/M06 A3021 RMK A01 T10381057  RH  087%=      5-min Rain = 0
KPA1 151056Z 30008KT M04/M06 A3022 RMK A01 T10371056  RH  087%=      5-min Rain = 0
KPA1 151057Z 30008KT M04/M06 A3022 RMK A01 T10371056  RH  087%=      5-min Rain = 0
KPA1 151058Z 30008KT M04/M06 A3022 RMK A01 T10371056  RH  087%=      5-min Rain = 0
KPA1 151059Z 30008KT M04/M06 A3022 RMK A01 T10371057  RH  086%=      5-min Rain = 0
KPA1 151100Z 30007KT M04/M06 A3022 RMK A01 T10381057  RH  086%=      5-min Rain = 0
KPA1 151101Z 31007KT M04/M06 A3022 RMK A01 T10381058  RH  087%=      5-min Rain = 0
KPA1 151102Z 31007KT M04/M06 A3022 RMK A01 T10381057  RH  087%=      5-min Rain = 0
KPA1 151103Z 31007KT M04/M06 A3022 RMK A01 T10381057  RH  087%=      5-min Rain = 0
KPA1 151104Z 31007KT M04/M06 A3022 RMK A01 T10381057  RH  087%=      5-min Rain = 0
KPA1 151105Z 31007KT M04/M06 A3022 RMK A01 T10381057  RH  087%=      5-min Rain = 0
KPA1 151106Z 31008KT M04/M06 A3022 RMK A01 T10381057  RH  087%=      5-min Rain = 0
KPA1 151107Z 31008KT M04/M06 A3022 RMK A01 T10381058  RH  086%=      5-min Rain = 0
KPA1 151108Z 31008KT M04/M06 A3022 RMK A01 T10381057  RH  087%=      5-min Rain = 0
KPA1 151109Z 31008KT M04/M06 A3022 RMK A01 T10381057  RH  087%=      5-min Rain = 0
KPA1 151110Z 31008KT M04/M06 A3022 RMK A01 T10381057  RH  086%=      5-min Rain = 0
KPA1 151111Z 31008KT M04/M06 A3022 RMK A01 T10371057  RH  086%=      5-min Rain = 0
KPA1 151112Z 31007KT M04/M06 A3022 RMK A01 T10371057  RH  086%=      5-min Rain = 0
KPA1 151113Z 31008KT M04/M06 A3022 RMK A01 T10381057  RH  086%=      5-min Rain = 0
KPA1 151114Z 31008KT M04/M06 A3022 RMK A01 T10381057  RH  086%=      5-min Rain = 0
KPA1 151115Z 31008KT M04/M06 A3022 RMK A01 T10381057  RH  087%=      5-min Rain = 0
KPA1 151116Z 31007KT M04/M06 A3022 RMK A01 T10381057  RH  086%=      5-min Rain = 0
KPA1 151117Z 31007KT M04/M06 A3022 RMK A01 T10381057  RH  086%=      5-min Rain = 0
KPA1 151118Z 31007KT M04/M06 A3022 RMK A01 T10381057  RH  086%=      5-min Rain = 0
KPA1 151119Z 31007KT M04/M06 A3022 RMK A01 T10381057  RH  086%=      5-min Rain = 0
KPA1 151120Z 31008KT M04/M06 A3022 RMK A01 T10371057  RH  086%=      5-min Rain = 0
KPA1 151121Z 31008KT M04/M06 A3022 RMK A01 T10371057  RH  086%=      5-min Rain = 0
KPA1 151122Z 31008KT M04/M06 A3022 RMK A01 T10371057  RH  086%=      5-min Rain = 0
KPA1 151123Z 31007KT M04/M06 A3022 RMK A01 T10371057  RH  086%=      5-min Rain = 0
KPA1 151124Z 31008KT M04/M06 A3022 RMK A01 T10371057  RH  086%=      5-min Rain = 0
KPA1 151125Z 31008KT M04/M06 A3022 RMK A01 T10361057  RH  086%=      5-min Rain = 0
KPA1 151126Z 31008KT M04/M06 A3022 RMK A01 T10361057  RH  085%=      5-min Rain = 0
KPA1 151127Z 31008KT M04/M06 A3022 RMK A01 T10361057  RH  085%=      5-min Rain = 0
KPA1 151128Z 31008KT M04/M06 A3022 RMK A01 T10361057  RH  085%=      5-min Rain = 0
KPA1 151129Z 31008KT M04/M06 A3022 RMK A01 T10371058  RH  085%=      5-min Rain = 0
KPA1 151130Z 31008KT M04/M06 A3022 RMK A01 T10371058  RH  085%=      5-min Rain = 0
KPA1 151131Z 31008KT M04/M06 A3022 RMK A01 T10371059  RH  085%=      5-min Rain = 0
KPA1 151132Z 31008KT M04/M06 A3022 RMK A01 T10371058  RH  085%=      5-min Rain = 0
KPA1 151133Z 31008KT M04/M06 A3022 RMK A01 T10381059  RH  086%=      5-min Rain = 0
KPA1 151134Z 31007KT M04/M06 A3022 RMK A01 T10381059  RH  085%=      5-min Rain = 0
KPA1 151135Z 31007KT M04/M06 A3022 RMK A01 T10381059  RH  085%=      5-min Rain = 0
KPA1 151136Z 31007KT M04/M06 A3022 RMK A01 T10381059  RH  086%=      5-min Rain = 0
KPA1 151137Z 31008KT M04/M06 A3022 RMK A01 T10381058  RH  086%=      5-min Rain = 0
KPA1 151138Z 31008KT M04/M06 A3022 RMK A01 T10371058  RH  086%=      5-min Rain = 0
KPA1 151139Z 31008KT M03/M06 A3022 RMK A01 T10341055  RH  086%=      5-min Rain = 0
KPA1 151140Z 31008KT M03/M05 A3022 RMK A01 T10311053  RH  085%=      5-min Rain = 0
KPA1 151141Z 31008KT M03/M06 A3022 RMK A01 T10311055  RH  084%=      5-min Rain = 0
KPA1 151142Z 31008KT M03/M06 A3022 RMK A01 T10321056  RH  084%=      5-min Rain = 0
KPA1 151143Z 31007KT M03/M06 A3022 RMK A01 T10341058  RH  084%=      5-min Rain = 0
KPA1 151144Z 31007KT M04/M06 A3022 RMK A01 T10351059  RH  084%=      5-min Rain = 0
KPA1 151145Z 31007KT M04/M06 A3022 RMK A01 T10361059  RH  084%=      5-min Rain = 0
KPA1 151146Z 30007KT M04/M06 A3022 RMK A01 T10361059  RH  084%=      5-min Rain = 0
KPA1 151147Z 31007KT M04/M06 A3022 RMK A01 T10371059  RH  085%=      5-min Rain = 0
KPA1 151148Z 31007KT M04/M06 A3022 RMK A01 T10381060  RH  085%=      5-min Rain = 0
KPA1 151149Z 31007KT M04/M06 A3022 RMK A01 T10381059  RH  085%=      5-min Rain = 0
KPA1 151150Z 31007KT M04/M06 A3022 RMK A01 T10381059  RH  085%=      5-min Rain = 0
KPA1 151151Z 31007KT M04/M06 A3022 RMK A01 T10361057  RH  086%=      5-min Rain = 0
KPA1 151152Z 31007KT M04/M06 A3022 RMK A01 T10351056  RH  085%=      5-min Rain = 0
KPA1 151153Z 31007KT M03/M06 A3022 RMK A01 T10341056  RH  085%=      5-min Rain = 0
KPA1 151154Z 31007KT M04/M06 A3022 RMK A01 T10351058  RH  084%=      5-min Rain = 0
KPA1 151155Z 31006KT M04/M06 A3022 RMK A01 T10371060  RH  084%=      5-min Rain = 0
KPA1 151156Z 31006KT M04/M06 A3022 RMK A01 T10381060  RH  084%=      5-min Rain = 0
KPA1 151157Z 31006KT M04/M06 A3022 RMK A01 T10391061  RH  085%=      5-min Rain = 0
KPA1 151158Z 31006KT M04/M06 A3022 RMK A01 T10391061  RH  085%=      5-min Rain = 0
KPA1 151159Z 31006KT M04/M06 A3022 RMK A01 T10391060  RH  085%=      5-min Rain = 0
KPA1 151200Z 32006KT M04/M06 A3022 RMK A01 T10401060  RH  086%=      5-min Rain = 0
KPA1 151201Z 32007KT M04/M06 A3022 RMK A01 T10401060  RH  086%=      5-min Rain = 0
KPA1 151202Z 32006KT M04/M06 A3022 RMK A01 T10401060  RH  086%=      5-min Rain = 0
KPA1 151203Z 32006KT M04/M06 A3022 RMK A01 T10401060  RH  086%=      5-min Rain = 0
KPA1 151204Z 32007KT M04/M06 A3022 RMK A01 T10401060  RH  086%=      5-min Rain = 0
KPA1 151205Z 32007KT M04/M06 A3022 RMK A01 T10391060  RH  086%=      5-min Rain = 0
KPA1 151206Z 31007KT M04/M06 A3022 RMK A01 T10391059  RH  086%=      5-min Rain = 0
KPA1 151207Z 32007KT M04/M06 A3022 RMK A01 T10381060  RH  085%=      5-min Rain = 0
KPA1 151208Z 32007KT M04/M06 A3022 RMK A01 T10381060  RH  085%=      5-min Rain = 0
KPA1 151209Z 32007KT M04/M06 A3022 RMK A01 T10381060  RH  085%=      5-min Rain = 0
KPA1 151210Z 31007KT M04/M06 A3022 RMK A01 T10381060  RH  085%=      5-min Rain = 0
KPA1 151211Z 32007KT M04/M06 A3022 RMK A01 T10381060  RH  085%=      5-min Rain = 0
KPA1 151212Z 31007KT M04/M06 A3022 RMK A01 T10381060  RH  085%=      5-min Rain = 0
KPA1 151213Z 31007KT M04/M06 A3022 RMK A01 T10381060  RH  084%=      5-min Rain = 0
KPA1 151214Z 31008KT M04/M06 A3022 RMK A01 T10381061  RH  084%=      5-min Rain = 0
KPA1 151215Z 31007KT M04/M06 A3022 RMK A01 T10381061  RH  085%=      5-min Rain = 0
KPA1 151216Z 31007KT M04/M06 A3022 RMK A01 T10381061  RH  085%=      5-min Rain = 0
KPA1 151217Z 31007KT M04/M06 A3022 RMK A01 T10381060  RH  085%=      5-min Rain = 0
KPA1 151218Z 31008KT M04/M06 A3022 RMK A01 T10381061  RH  085%=      5-min Rain = 0
KPA1 151219Z 31008KT M04/M06 A3022 RMK A01 T10381060  RH  085%=      5-min Rain = 0
KPA1 151220Z 31007KT M04/M06 A3022 RMK A01 T10371059  RH  085%=      5-min Rain = 0
KPA1 151221Z 31007KT M04/M06 A3022 RMK A01 T10371059  RH  085%=      5-min Rain = 0
KPA1 151222Z 31007KT M04/M06 A3022 RMK A01 T10371059  RH  085%=      5-min Rain = 0
KPA1 151223Z 31007KT M04/M06 A3022 RMK A01 T10361059  RH  085%=      5-min Rain = 0
KPA1 151224Z 31007KT M04/M06 A3022 RMK A01 T10371059  RH  084%=      5-min Rain = 0
KPA1 151225Z 31007KT M04/M06 A3022 RMK A01 T10371059  RH  085%=      5-min Rain = 0
KPA1 151226Z 31007KT M04/M06 A3022 RMK A01 T10371059  RH  084%=      5-min Rain = 0
KPA1 151227Z 31007KT M04/M06 A3022 RMK A01 T10371059  RH  084%=      5-min Rain = 0
KPA1 151228Z 31007KT M04/M06 A3022 RMK A01 T10361058  RH  085%=      5-min Rain = 0
KPA1 151229Z 31008KT M03/M06 A3022 RMK A01 T10341057  RH  084%=      5-min Rain = 0
KPA1 151230Z 31008KT M03/M06 A3022 RMK A01 T10341058  RH  084%=      5-min Rain = 0
KPA1 151231Z 31007KT M04/M06 A3022 RMK A01 T10351059  RH  084%=      5-min Rain = 0
KPA1 151232Z 31008KT M04/M06 A3022 RMK A01 T10361059  RH  084%=      5-min Rain = 0
KPA1 151233Z 31008KT M04/M06 A3022 RMK A01 T10361059  RH  084%=      5-min Rain = 0
KPA1 151234Z 31007KT M04/M06 A3022 RMK A01 T10361059  RH  084%=      5-min Rain = 0
KPA1 151235Z 31007KT M04/M06 A3022 RMK A01 T10361059  RH  084%=      5-min Rain = 0
KPA1 151236Z 31007KT M04/M06 A3022 RMK A01 T10371060  RH  084%=      5-min Rain = 0
KPA1 151237Z 31007KT M04/M06 A3022 RMK A01 T10371060  RH  084%=      5-min Rain = 0
KPA1 151238Z 31007KT M04/M06 A3022 RMK A01 T10371060  RH  084%=      5-min Rain = 0
KPA1 151239Z 31008KT M04/M06 A3022 RMK A01 T10371060  RH  084%=      5-min Rain = 0
KPA1 151240Z 31008KT M04/M06 A3022 RMK A01 T10371060  RH  084%=      5-min Rain = 0
KPA1 151241Z 31007KT M04/M06 A3022 RMK A01 T10371059  RH  084%=      5-min Rain = 0
KPA1 151242Z 31008KT M04/M06 A3022 RMK A01 T10371059  RH  084%=      5-min Rain = 0
KPA1 151243Z 31007KT M04/M06 A3022 RMK A01 T10371059  RH  084%=      5-min Rain = 0
KPA1 151244Z 31007KT M04/M06 A3022 RMK A01 T10361059  RH  084%=      5-min Rain = 0
KPA1 151245Z 31007KT M04/M06 A3022 RMK A01 T10361058  RH  084%=      5-min Rain = 0
KPA1 151246Z 31007KT M04/M06 A3022 RMK A01 T10361058  RH  084%=      5-min Rain = 0
KPA1 151247Z 31007KT M04/M06 A3022 RMK A01 T10361058  RH  084%=      5-min Rain = 0
KPA1 151248Z 31008KT M04/M06 A3022 RMK A01 T10361059  RH  084%=      5-min Rain = 0
KPA1 151249Z 31007KT M04/M06 A3022 RMK A01 T10371060  RH  084%=      5-min Rain = 0
KPA1 151250Z 31007KT M04/M06 A3022 RMK A01 T10371060  RH  084%=      5-min Rain = 0
KPA1 151251Z 31007KT M04/M06 A3022 RMK A01 T10381060  RH  084%=      5-min Rain = 0
KPA1 151252Z 31007KT M04/M06 A3022 RMK A01 T10381060  RH  085%=      5-min Rain = 0
KPA1 151253Z 31006KT M04/M06 A3022 RMK A01 T10381059  RH  085%=      5-min Rain = 0
KPA1 151254Z 31006KT M04/M06 A3022 RMK A01 T10381060  RH  085%=      5-min Rain = 0
KPA1 151255Z 31006KT M04/M06 A3022 RMK A01 T10381060  RH  085%=      5-min Rain = 0
KPA1 151256Z 31006KT M04/M06 A3022 RMK A01 T10391061  RH  085%=      5-min Rain = 0
KPA1 151257Z 31006KT M04/M06 A3022 RMK A01 T10401062  RH  085%=      5-min Rain = 0
KPA1 151258Z 32006KT M04/M06 A3023 RMK A01 T10401061  RH  085%=      5-min Rain = 0
KPA1 151259Z 32006KT M04/M06 A3023 RMK A01 T10411061  RH  085%=      5-min Rain = 0
KPA1 151300Z 32006KT M04/M06 A3023 RMK A01 T10401061  RH  086%=      5-min Rain = 0
KPA1 151301Z 32006KT M04/M06 A3023 RMK A01 T10411061  RH  086%=      5-min Rain = 0
KPA1 151302Z 32006KT M04/M06 A3023 RMK A01 T10401061  RH  086%=      5-min Rain = 0
KPA1 151303Z 32006KT M04/M06 A3023 RMK A01 T10411061  RH  086%=      5-min Rain = 0
KPA1 151304Z 32006KT M04/M06 A3023 RMK A01 T10401061  RH  086%=      5-min Rain = 0
KPA1 151305Z 32006KT M04/M06 A3023 RMK A01 T10391060  RH  086%=      5-min Rain = 0
KPA1 151306Z 32006KT M04/M06 A3023 RMK A01 T10391060  RH  085%=      5-min Rain = 0
KPA1 151307Z 32006KT M04/M06 A3023 RMK A01 T10391061  RH  085%=      5-min Rain = 0
KPA1 151308Z 32006KT M04/M06 A3023 RMK A01 T10411063  RH  085%=      5-min Rain = 0
KPA1 151309Z 32006KT M04/M06 A3023 RMK A01 T10411062  RH  085%=      5-min Rain = 0
KPA1 151310Z 32006KT M04/M06 A3023 RMK A01 T10411062  RH  085%=      5-min Rain = 0
KPA1 151311Z 32006KT M04/M06 A3023 RMK A01 T10411063  RH  085%=      5-min Rain = 0
KPA1 151312Z 32006KT M04/M06 A3023 RMK A01 T10421063  RH  085%=      5-min Rain = 0
KPA1 151313Z 32006KT M04/M06 A3023 RMK A01 T10421064  RH  085%=      5-min Rain = 0
KPA1 151314Z 32007KT M04/M06 A3023 RMK A01 T10421063  RH  085%=      5-min Rain = 0
KPA1 151315Z 32007KT M04/M06 A3023 RMK A01 T10421063  RH  085%=      5-min Rain = 0
KPA1 151316Z 32007KT M04/M06 A3023 RMK A01 T10411062  RH  085%=      5-min Rain = 0
KPA1 151317Z 32007KT M04/M06 A3023 RMK A01 T10401061  RH  085%=      5-min Rain = 0
KPA1 151318Z 32007KT M04/M06 A3023 RMK A01 T10401062  RH  085%=      5-min Rain = 0
KPA1 151319Z 32007KT M04/M06 A3023 RMK A01 T10391061  RH  085%=      5-min Rain = 0
KPA1 151320Z 32007KT M04/M06 A3023 RMK A01 T10381061  RH  084%=      5-min Rain = 0
KPA1 151321Z 32008KT M04/M06 A3023 RMK A01 T10381062  RH  084%=      5-min Rain = 0
KPA1 151322Z 32007KT M04/M06 A3023 RMK A01 T10381062  RH  083%=      5-min Rain = 0
KPA1 151323Z 32007KT M04/M06 A3023 RMK A01 T10381062  RH  083%=      5-min Rain = 0
KPA1 151324Z 32007KT M04/M06 A3023 RMK A01 T10391063  RH  083%=      5-min Rain = 0
KPA1 151325Z 32007KT M04/M06 A3023 RMK A01 T10381062  RH  083%=      5-min Rain = 0
KPA1 151326Z 32008KT M04/M06 A3023 RMK A01 T10381062  RH  083%=      5-min Rain = 0
KPA1 151327Z 32008KT M04/M06 A3023 RMK A01 T10381062  RH  083%=      5-min Rain = 0
KPA1 151328Z 32008KT M04/M06 A3023 RMK A01 T10371062  RH  083%=      5-min Rain = 0
KPA1 151329Z 32008KT M04/M06 A3023 RMK A01 T10361061  RH  083%=      5-min Rain = 0
KPA1 151330Z 32007KT M04/M06 A3023 RMK A01 T10361062  RH  082%=      5-min Rain = 0
KPA1 151331Z 32009KT M04/M06 A3023 RMK A01 T10351061  RH  082%=      5-min Rain = 0
KPA1 151332Z 32008KT M03/M06 A3023 RMK A01 T10331059  RH  082%=      5-min Rain = 0
KPA1 151333Z 32008KT M03/M06 A3024 RMK A01 T10321059  RH  082%=      5-min Rain = 0
KPA1 151334Z 32008KT M03/M06 A3024 RMK A01 T10311059  RH  081%=      5-min Rain = 0
KPA1 151335Z 32008KT M03/M06 A3024 RMK A01 T10321060  RH  081%=      5-min Rain = 0
KPA1 151336Z 32008KT M03/M06 A3024 RMK A01 T10331062  RH  081%=      5-min Rain = 0
KPA1 151337Z 32008KT M03/M06 A3024 RMK A01 T10341062  RH  081%=      5-min Rain = 0
KPA1 151338Z 32008KT M03/M06 A3024 RMK A01 T10341062  RH  081%=      5-min Rain = 0
KPA1 151339Z 32008KT M03/M06 A3024 RMK A01 T10341062  RH  081%=      5-min Rain = 0
KPA1 151340Z 32008KT M03/M06 A3024 RMK A01 T10341061  RH  081%=      5-min Rain = 0
KPA1 151341Z 32008KT M03/M06 A3024 RMK A01 T10341061  RH  081%=      5-min Rain = 0
KPA1 151342Z 32008KT M03/M06 A3024 RMK A01 T10331061  RH  081%=      5-min Rain = 0
KPA1 151343Z 32008KT M03/M06 A3024 RMK A01 T10341062  RH  081%=      5-min Rain = 0
KPA1 151344Z 32008KT M04/M06 A3024 RMK A01 T10351062  RH  081%=      5-min Rain = 0
KPA1 151345Z 32008KT M04/M06 A3024 RMK A01 T10351062  RH  082%=      5-min Rain = 0
KPA1 151346Z 32008KT M03/M06 A3024 RMK A01 T10341062  RH  081%=      5-min Rain = 0
KPA1 151347Z 32008KT M03/M06 A3024 RMK A01 T10341061  RH  081%=      5-min Rain = 0
KPA1 151348Z 32008KT M03/M06 A3024 RMK A01 T10341062  RH  081%=      5-min Rain = 0
KPA1 151349Z 32008KT M03/M06 A3024 RMK A01 T10341062  RH  081%=      5-min Rain = 0
KPA1 151350Z 32007KT M03/M06 A3024 RMK A01 T10341062  RH  081%=      5-min Rain = 0
KPA1 151351Z 32008KT M03/M06 A3024 RMK A01 T10341062  RH  081%=      5-min Rain = 0
KPA1 151352Z 32007KT M03/M06 A3024 RMK A01 T10331062  RH  081%=      5-min Rain = 0
KPA1 151353Z 32007KT M03/M06 A3024 RMK A01 T10331062  RH  081%=      5-min Rain = 0
KPA1 151354Z 32008KT M03/M06 A3024 RMK A01 T10331062  RH  081%=      5-min Rain = 0
KPA1 151355Z 32008KT M03/M06 A3024 RMK A01 T10331062  RH  081%=      5-min Rain = 0
KPA1 151356Z 32008KT M03/M06 A3024 RMK A01 T10331062  RH  081%=      5-min Rain = 0
KPA1 151357Z 32007KT M03/M06 A3024 RMK A01 T10331061  RH  081%=      5-min Rain = 0
KPA1 151358Z 32007KT M03/M06 A3024 RMK A01 T10331062  RH  080%=      5-min Rain = 0
KPA1 151359Z 32007KT M03/M06 A3024 RMK A01 T10331062  RH  080%=      5-min Rain = 0
KPA1 151400Z 32007KT M03/M06 A3024 RMK A01 T10321061  RH  081%=      5-min Rain = 0
KPA1 151401Z 32006KT M03/M06 A3024 RMK A01 T10321061  RH  080%=      5-min Rain = 0
KPA1 151402Z 32006KT M03/M06 A3024 RMK A01 T10311061  RH  080%=      5-min Rain = 0
KPA1 151403Z 32006KT M03/M06 A3024 RMK A01 T10321061  RH  080%=      5-min Rain = 0
KPA1 151404Z 31006KT M03/M06 A3024 RMK A01 T10311061  RH  080%=      5-min Rain = 0
KPA1 151405Z 31006KT M03/M06 A3024 RMK A01 T10311061  RH  080%=      5-min Rain = 0
KPA1 151406Z 31006KT M03/M06 A3024 RMK A01 T10311061  RH  080%=      5-min Rain = 0
KPA1 151407Z 31007KT M03/M06 A3024 RMK A01 T10311061  RH  080%=      5-min Rain = 0
KPA1 151408Z 31006KT M03/M06 A3024 RMK A01 T10311060  RH  080%=      5-min Rain = 0
KPA1 151409Z 31007KT M03/M06 A3024 RMK A01 T10311060  RH  080%=      5-min Rain = 0
KPA1 151410Z 31008KT M03/M06 A3024 RMK A01 T10311060  RH  080%=      5-min Rain = 0
KPA1 151411Z 31007KT M03/M06 A3025 RMK A01 T10301060  RH  080%=      5-min Rain = 0
KPA1 151412Z 31007KT M03/M06 A3025 RMK A01 T10301059  RH  080%=      5-min Rain = 0
KPA1 151413Z 31007KT M03/M06 A3025 RMK A01 T10301059  RH  080%=      5-min Rain = 0
KPA1 151414Z 31007KT M03/M06 A3025 RMK A01 T10291059  RH  080%=      5-min Rain = 0
KPA1 151415Z 31007KT M03/M06 A3025 RMK A01 T10291058  RH  080%=      5-min Rain = 0
KPA1 151416Z 31006KT M03/M06 A3025 RMK A01 T10301059  RH  081%=      5-min Rain = 0
KPA1 151417Z 31006KT M03/M06 A3025 RMK A01 T10291058  RH  081%=      5-min Rain = 0
KPA1 151418Z 31006KT M03/M06 A3025 RMK A01 T10291058  RH  080%=      5-min Rain = 0
KPA1 151419Z 31007KT M03/M06 A3025 RMK A01 T10281058  RH  080%=      5-min Rain = 0
KPA1 151420Z 31006KT M03/M06 A3025 RMK A01 T10281058  RH  080%=      5-min Rain = 0
KPA1 151421Z 31006KT M03/M06 A3025 RMK A01 T10281057  RH  080%=      5-min Rain = 0
KPA1 151422Z 31006KT M03/M06 A3025 RMK A01 T10281057  RH  080%=      5-min Rain = 0
KPA1 151423Z 31005KT M03/M06 A3025 RMK A01 T10271057  RH  080%=      5-min Rain = 0
KPA1 151424Z 31005KT M03/M06 A3025 RMK A01 T10271056  RH  080%=      5-min Rain = 0
KPA1 151425Z 31005KT M03/M06 A3025 RMK A01 T10271056  RH  080%=      5-min Rain = 0
KPA1 151426Z 31005KT M03/M06 A3025 RMK A01 T10261055  RH  081%=      5-min Rain = 0
KPA1 151427Z 31005KT M03/M06 A3025 RMK A01 T10261055  RH  081%=      5-min Rain = 0
KPA1 151428Z 31005KT M03/M06 A3025 RMK A01 T10261055  RH  081%=      5-min Rain = 0
KPA1 151429Z 30005KT M03/M05 A3025 RMK A01 T10261054  RH  081%=      5-min Rain = 0
KPA1 151430Z 30006KT M03/M05 A3025 RMK A01 T10251054  RH  081%=      5-min Rain = 0
KPA1 151431Z 30006KT M03/M05 A3025 RMK A01 T10251053  RH  081%=      5-min Rain = 0
KPA1 151432Z 30006KT M02/M05 A3025 RMK A01 T10241053  RH  081%=      5-min Rain = 0
KPA1 151433Z 30006KT M02/M05 A3025 RMK A01 T10241052  RH  081%=      5-min Rain = 0
KPA1 151434Z 30006KT M02/M05 A3025 RMK A01 T10231052  RH  081%=      5-min Rain = 0
KPA1 151435Z 30006KT M02/M05 A3025 RMK A01 T10231052  RH  080%=      5-min Rain = 0
KPA1 151436Z 30007KT M02/M05 A3025 RMK A01 T10221052  RH  080%=      5-min Rain = 0
KPA1 151437Z 30007KT M02/M05 A3025 RMK A01 T10221052  RH  080%=      5-min Rain = 0
KPA1 151438Z 30007KT M02/M05 A3025 RMK A01 T10221052  RH  080%=      5-min Rain = 0
KPA1 151439Z 31007KT M02/M05 A3025 RMK A01 T10221052  RH  080%=      5-min Rain = 0
KPA1 151440Z 31007KT M02/M05 A3025 RMK A01 T10211052  RH  080%=      5-min Rain = 0
KPA1 151441Z 31007KT M02/M05 A3025 RMK A01 T10211051  RH  080%=      5-min Rain = 0
KPA1 151442Z 31007KT M02/M05 A3025 RMK A01 T10201051  RH  079%=      5-min Rain = 0
KPA1 151443Z 30006KT M02/M05 A3025 RMK A01 T10201051  RH  079%=      5-min Rain = 0
KPA1 151444Z 31005KT M02/M05 A3025 RMK A01 T10191050  RH  079%=      5-min Rain = 0
KPA1 151445Z 30005KT M02/M05 A3025 RMK A01 T10191050  RH  079%=      5-min Rain = 0
KPA1 151446Z 30006KT M02/M05 A3025 RMK A01 T10191050  RH  079%=      5-min Rain = 0
KPA1 151447Z 30005KT M02/M05 A3025 RMK A01 T10181050  RH  079%=      5-min Rain = 0
KPA1 151448Z 30005KT M02/M05 A3026 RMK A01 T10181049  RH  079%=      5-min Rain = 0
KPA1 151449Z 30005KT M02/M05 A3026 RMK A01 T10181048  RH  080%=      5-min Rain = 0
KPA1 151450Z 29005KT M02/M05 A3026 RMK A01 T10181048  RH  080%=      5-min Rain = 0
KPA1 151451Z 30005KT M02/M05 A3026 RMK A01 T10171048  RH  080%=      5-min Rain = 0
KPA1 151452Z 30005KT M02/M05 A3025 RMK A01 T10171047  RH  080%=      5-min Rain = 0
KPA1 151453Z 30005KT M02/M05 A3025 RMK A01 T10171047  RH  080%=      5-min Rain = 0
KPA1 151454Z 30006KT M02/M05 A3026 RMK A01 T10161047  RH  079%=      5-min Rain = 0
KPA1 151455Z 30006KT M02/M05 A3026 RMK A01 T10161047  RH  079%=      5-min Rain = 0
KPA1 151456Z 31006KT M02/M05 A3026 RMK A01 T10151046  RH  079%=      5-min Rain = 0
KPA1 151457Z 30006KT M01/M05 A3026 RMK A01 T10141047  RH  078%=      5-min Rain = 0
KPA1 151458Z 30006KT M01/M05 A3026 RMK A01 T10141047  RH  078%=      5-min Rain = 0
KPA1 151459Z 30006KT M01/M05 A3026 RMK A01 T10131047  RH  078%=      5-min Rain = 0
KPA1 151500Z 30006KT M01/M05 A3026 RMK A01 T10131046  RH  078%=      5-min Rain = 0
KPA1 151501Z 30006KT M01/M05 A3026 RMK A01 T10121046  RH  078%=      5-min Rain = 0
KPA1 151502Z 30006KT M01/M05 A3026 RMK A01 T10121045  RH  078%=      5-min Rain = 0
KPA1 151503Z 29006KT M01/M05 A3026 RMK A01 T10111045  RH  078%=      5-min Rain = 0
KPA1 151504Z 29006KT M01/M04 A3026 RMK A01 T10101044  RH  078%=      5-min Rain = 0
KPA1 151505Z 30006KT M01/M04 A3026 RMK A01 T10101043  RH  078%=      5-min Rain = 0
KPA1 151506Z 30006KT M01/M04 A3026 RMK A01 T10101043  RH  078%=      5-min Rain = 0
KPA1 151507Z 30006KT M01/M04 A3026 RMK A01 T10091043  RH  078%=      5-min Rain = 0
KPA1 151508Z 30006KT M01/M04 A3026 RMK A01 T10101043  RH  078%=      5-min Rain = 0
KPA1 151509Z 30007KT M01/M04 A3026 RMK A01 T10101043  RH  078%=      5-min Rain = 0
KPA1 151510Z 30006KT M01/M04 A3026 RMK A01 T10091043  RH  078%=      5-min Rain = 0
KPA1 151511Z 31005KT M01/M04 A3026 RMK A01 T10091043  RH  078%=      5-min Rain = 0
KPA1 151512Z 30005KT M01/M04 A3026 RMK A01 T10081042  RH  078%=      5-min Rain = 0
KPA1 151513Z 30005KT M01/M04 A3026 RMK A01 T10081042  RH  078%=      5-min Rain = 0
KPA1 151514Z 30005KT M01/M04 A3026 RMK A01 T10081041  RH  078%=      5-min Rain = 0
KPA1 151515Z 30005KT M01/M04 A3026 RMK A01 T10071040  RH  078%=      5-min Rain = 0
KPA1 151516Z 30006KT M01/M04 A3026 RMK A01 T10071041  RH  078%=      5-min Rain = 0
KPA1 151517Z 30005KT M01/M04 A3026 RMK A01 T10061041  RH  077%=      5-min Rain = 0
KPA1 151518Z 30005KT M01/M04 A3026 RMK A01 T10061041  RH  077%=      5-min Rain = 0
KPA1 151519Z 30005KT M01/M04 A3026 RMK A01 T10051039  RH  077%=      5-min Rain = 0
KPA1 151520Z 30005KT M00/M04 A3026 RMK A01 T10041039  RH  077%=      5-min Rain = 0
KPA1 151521Z 30006KT M00/M04 A3026 RMK A01 T10041039  RH  077%=      5-min Rain = 0
KPA1 151522Z 30006KT M00/M04 A3026 RMK A01 T10031039  RH  077%=      5-min Rain = 0
KPA1 151523Z 30006KT M00/M04 A3026 RMK A01 T10031039  RH  077%=      5-min Rain = 0
KPA1 151524Z 30005KT M00/M04 A3026 RMK A01 T10031039  RH  077%=      5-min Rain = 0
KPA1 151525Z 30006KT M00/M04 A3026 RMK A01 T10021038  RH  077%=      5-min Rain = 0
KPA1 151526Z 30006KT M00/M04 A3026 RMK A01 T10011038  RH  076%=      5-min Rain = 0
KPA1 151527Z 30006KT M00/M04 A3026 RMK A01 T10011039  RH  076%=      5-min Rain = 0
KPA1 151528Z 30006KT M00/M04 A3026 RMK A01 T10011039  RH  075%=      5-min Rain = 0
KPA1 151529Z 30006KT 00/04 A3026 RMK A01 T00-00-38  RH  076%=      5-min Rain = 0
KPA1 151530Z 30007KT 00/04 A3026 RMK A01 T00000-38  RH  075%=      5-min Rain = 0
KPA1 151531Z 30006KT 00/04 A3026 RMK A01 T00000-39  RH  075%=      5-min Rain = 0
KPA1 151532Z 30006KT 00/M04 A3026 RMK A01 T00011039  RH  075%=      5-min Rain = 0
KPA1 151533Z 29006KT 00/M04 A3026 RMK A01 T00021038  RH  075%=      5-min Rain = 0
KPA1 151534Z 30006KT 00/M04 A3026 RMK A01 T00021038  RH  075%=      5-min Rain = 0
KPA1 151535Z 30006KT 00/M04 A3026 RMK A01 T00021038  RH  074%=      5-min Rain = 0
KPA1 151536Z 30006KT 00/M04 A3026 RMK A01 T00021039  RH  074%=      5-min Rain = 0
KPA1 151537Z 30005KT 00/M04 A3026 RMK A01 T00031038  RH  074%=      5-min Rain = 0
KPA1 151538Z 30006KT 00/M04 A3026 RMK A01 T00031037  RH  074%=      5-min Rain = 0
KPA1 151539Z 30006KT 00/M04 A3026 RMK A01 T00041038  RH  073%=      5-min Rain = 0
KPA1 151540Z 30005KT 00/M04 A3026 RMK A01 T00041037  RH  074%=      5-min Rain = 0
KPA1 151541Z 30005KT 01/M04 A3026 RMK A01 T00051036  RH  074%=      5-min Rain = 0
KPA1 151542Z 30006KT 01/M04 A3026 RMK A01 T00061036  RH  074%=      5-min Rain = 0
KPA1 151543Z 30006KT 01/M04 A3026 RMK A01 T00061037  RH  073%=      5-min Rain = 0
KPA1 151544Z 30005KT 01/M04 A3026 RMK A01 T00071037  RH  073%=      5-min Rain = 0
KPA1 151545Z 29005KT 01/M04 A3026 RMK A01 T00071037  RH  073%=      5-min Rain = 0
KPA1 151546Z 30006KT 01/M04 A3026 RMK A01 T00081036  RH  072%=      5-min Rain = 0
KPA1 151547Z 30004KT 01/M04 A3026 RMK A01 T00081036  RH  072%=      5-min Rain = 0
KPA1 151548Z 30006KT 01/M04 A3026 RMK A01 T00081036  RH  072%=      5-min Rain = 0
KPA1 151549Z 30005KT 01/M04 A3026 RMK A01 T00091037  RH  072%=      5-min Rain = 0
KPA1 151550Z 29005KT 01/M04 A3026 RMK A01 T00091036  RH  072%=      5-min Rain = 0
KPA1 151551Z 29006KT 01/M04 A3026 RMK A01 T00091036  RH  072%=      5-min Rain = 0
KPA1 151552Z 30005KT 01/M04 A3026 RMK A01 T00091036  RH  072%=      5-min Rain = 0
KPA1 151553Z 30005KT 01/M04 A3026 RMK A01 T00101035  RH  072%=      5-min Rain = 0
KPA1 151554Z 29005KT 01/M04 A3026 RMK A01 T00101036  RH  071%=      5-min Rain = 0
KPA1 151555Z 28006KT 01/M04 A3026 RMK A01 T00111036  RH  071%=      5-min Rain = 0
KPA1 151556Z 29005KT 01/M04 A3026 RMK A01 T00111036  RH  071%=      5-min Rain = 0
KPA1 151557Z 29004KT 01/M03 A3026 RMK A01 T00121034  RH  071%=      5-min Rain = 0
KPA1 151558Z 28004KT 01/M03 A3026 RMK A01 T00131033  RH  072%=      5-min Rain = 0
KPA1 151559Z 28004KT 01/M03 A3026 RMK A01 T00131030  RH  073%=      5-min Rain = 0
KPA1 151600Z 28005KT 01/M03 A3026 RMK A01 T00131030  RH  073%=      5-min Rain = 0
KPA1 151601Z 28005KT 01/M03 A3026 RMK A01 T00131032  RH  071%=      5-min Rain = 0
KPA1 151602Z 28005KT 01/M03 A3026 RMK A01 T00131033  RH  071%=      5-min Rain = 0
KPA1 151603Z 28005KT 01/M03 A3026 RMK A01 T00141033  RH  071%=      5-min Rain = 0
KPA1 151604Z 27005KT 01/M03 A3026 RMK A01 T00131034  RH  071%=      5-min Rain = 0
KPA1 151605Z 28006KT 01/M03 A3026 RMK A01 T00141034  RH  070%=      5-min Rain = 0
KPA1 151606Z 28005KT 01/M03 A3026 RMK A01 T00141034  RH  070%=      5-min Rain = 0
KPA1 151607Z 28006KT 01/M03 A3026 RMK A01 T00141033  RH  071%=      5-min Rain = 0
KPA1 151608Z 28006KT 01/M03 A3026 RMK A01 T00141034  RH  071%=      5-min Rain = 0
KPA1 151609Z 29006KT 01/M04 A3026 RMK A01 T00141035  RH  070%=      5-min Rain = 0
KPA1 151610Z 28006KT 01/M03 A3026 RMK A01 T00141034  RH  070%=      5-min Rain = 0
KPA1 151611Z 28006KT 02/M03 A3026 RMK A01 T00151034  RH  070%=      5-min Rain = 0
KPA1 151612Z 28005KT 02/M04 A3026 RMK A01 T00151035  RH  069%=      5-min Rain = 0
KPA1 151613Z 28006KT 02/M03 A3026 RMK A01 T00161033  RH  070%=      5-min Rain = 0
KPA1 151614Z 28005KT 02/M03 A3026 RMK A01 T00161032  RH  070%=      5-min Rain = 0
KPA1 151615Z 28005KT 02/M03 A3026 RMK A01 T00161030  RH  071%=      5-min Rain = 0
KPA1 151616Z 27005KT 02/M03 A3026 RMK A01 T00171029  RH  072%=      5-min Rain = 0
KPA1 151617Z 28005KT 02/M03 A3026 RMK A01 T00171032  RH  070%=      5-min Rain = 0
KPA1 151618Z 28006KT 02/M03 A3026 RMK A01 T00171032  RH  070%=      5-min Rain = 0
KPA1 151619Z 28006KT 02/M03 A3026 RMK A01 T00171032  RH  070%=      5-min Rain = 0
KPA1 151620Z 27006KT 02/M03 A3026 RMK A01 T00171032  RH  070%=      5-min Rain = 0
KPA1 151621Z 27005KT 02/M03 A3026 RMK A01 T00181031  RH  070%=      5-min Rain = 0
KPA1 151622Z 28004KT 02/M03 A3026 RMK A01 T00181029  RH  071%=      5-min Rain = 0
KPA1 151623Z 27005KT 02/M03 A3026 RMK A01 T00191028  RH  071%=      5-min Rain = 0
KPA1 151624Z 27005KT 02/M03 A3026 RMK A01 T00191031  RH  069%=      5-min Rain = 0
KPA1 151625Z 27005KT 02/M03 A3026 RMK A01 T00191033  RH  069%=      5-min Rain = 0
KPA1 151626Z 28005KT 02/M03 A3026 RMK A01 T00191030  RH  069%=      5-min Rain = 0
KPA1 151627Z 28005KT 02/M03 A3026 RMK A01 T00201031  RH  069%=      5-min Rain = 0
KPA1 151628Z 27005KT 02/M03 A3026 RMK A01 T00201031  RH  069%=      5-min Rain = 0
KPA1 151629Z 27005KT 02/M03 A3026 RMK A01 T00201029  RH  070%=      5-min Rain = 0
KPA1 151630Z 27005KT 02/M03 A3026 RMK A01 T00221027  RH  070%=      5-min Rain = 0
KPA1 151631Z 27005KT 02/M03 A3026 RMK A01 T00211029  RH  069%=      5-min Rain = 0
KPA1 151632Z 28007KT 02/M03 A3026 RMK A01 T00221031  RH  068%=      5-min Rain = 0
KPA1 151633Z 28005KT 02/M03 A3026 RMK A01 T00211033  RH  067%=      5-min Rain = 0
KPA1 151634Z 27006KT 02/M03 A3026 RMK A01 T00211032  RH  068%=      5-min Rain = 0
KPA1 151635Z 28006KT 02/M03 A3026 RMK A01 T00221031  RH  068%=      5-min Rain = 0
KPA1 151636Z 28006KT 02/M03 A3026 RMK A01 T00221031  RH  068%=      5-min Rain = 0
KPA1 151637Z 26005KT 02/M03 A3026 RMK A01 T00221029  RH  069%=      5-min Rain = 0
KPA1 151638Z 27006KT 02/M03 A3026 RMK A01 T00231028  RH  069%=      5-min Rain = 0
KPA1 151639Z 27006KT 02/M03 A3026 RMK A01 T00231030  RH  068%=      5-min Rain = 0
KPA1 151640Z 27005KT 02/M03 A3026 RMK A01 T00231032  RH  067%=      5-min Rain = 0
KPA1 151641Z 27005KT 02/M03 A3026 RMK A01 T00231029  RH  068%=      5-min Rain = 0
KPA1 151642Z 28006KT 02/M03 A3026 RMK A01 T00241029  RH  068%=      5-min Rain = 0
KPA1 151643Z 28006KT 02/M03 A3026 RMK A01 T00241032  RH  067%=      5-min Rain = 0
KPA1 151644Z 28005KT 02/M03 A3026 RMK A01 T00241033  RH  066%=      5-min Rain = 0
KPA1 151645Z 28005KT 02/M03 A3026 RMK A01 T00241029  RH  068%=      5-min Rain = 0
KPA1 151646Z 28005KT 03/M03 A3026 RMK A01 T00251028  RH  068%=      5-min Rain = 0
KPA1 151647Z 27005KT 03/M03 A3026 RMK A01 T00251028  RH  068%=      5-min Rain = 0
KPA1 151648Z 27005KT 03/M03 A3026 RMK A01 T00261030  RH  067%=      5-min Rain = 0
KPA1 151649Z 28005KT 03/M03 A3026 RMK A01 T00261029  RH  067%=      5-min Rain = 0
KPA1 151650Z 27005KT 03/M03 A3026 RMK A01 T00261031  RH  066%=      5-min Rain = 0
KPA1 151651Z 27005KT 03/M03 A3026 RMK A01 T00271032  RH  065%=      5-min Rain = 0
KPA1 151652Z 27004KT 03/M03 A3026 RMK A01 T00271031  RH  066%=      5-min Rain = 0
KPA1 151653Z 27005KT 03/M03 A3026 RMK A01 T00281028  RH  067%=      5-min Rain = 0
KPA1 151654Z 27005KT 03/M03 A3026 RMK A01 T00281031  RH  065%=      5-min Rain = 0
KPA1 151655Z 27006KT 03/M03 A3026 RMK A01 T00281030  RH  066%=      5-min Rain = 0
KPA1 151656Z 27006KT 03/M03 A3026 RMK A01 T00281032  RH  065%=      5-min Rain = 0
KPA1 151657Z 27005KT 03/M03 A3026 RMK A01 T00281034  RH  064%=      5-min Rain = 0
KPA1 151658Z 27005KT 03/M04 A3026 RMK A01 T00281035  RH  063%=      5-min Rain = 0
KPA1 151659Z 28005KT 03/M03 A3026 RMK A01 T00291029  RH  066%=      5-min Rain = 0
KPA1 151700Z 28005KT 03/M03 A3026 RMK A01 T00291032  RH  064%=      5-min Rain = 0
KPA1 151701Z 28005KT 03/M04 A3026 RMK A01 T00291035  RH  063%=      5-min Rain = 0
KPA1 151702Z 28006KT 03/M03 A3026 RMK A01 T00291033  RH  064%=      5-min Rain = 0
KPA1 151703Z 28006KT 03/M03 A3026 RMK A01 T00291031  RH  064%=      5-min Rain = 0
KPA1 151704Z 27005KT 03/M03 A3026 RMK A01 T00291030  RH  065%=      5-min Rain = 0
KPA1 151705Z 28006KT 03/M03 A3026 RMK A01 T00291030  RH  065%=      5-min Rain = 0
KPA1 151706Z 28005KT 03/M03 A3026 RMK A01 T00291032  RH  064%=      5-min Rain = 0
KPA1 151707Z 28005KT 03/M03 A3026 RMK A01 T00301027  RH  066%=      5-min Rain = 0
KPA1 151708Z 28005KT 03/M03 A3026 RMK A01 T00301026  RH  067%=      5-min Rain = 0
KPA1 151709Z 28005KT 03/M03 A3026 RMK A01 T00301026  RH  067%=      5-min Rain = 0
KPA1 151710Z 28006KT 03/M03 A3026 RMK A01 T00301027  RH  066%=      5-min Rain = 0
KPA1 151711Z 28006KT 03/M03 A3026 RMK A01 T00311026  RH  066%=      5-min Rain = 0
KPA1 151712Z 28006KT 03/M03 A3026 RMK A01 T00311025  RH  067%=      5-min Rain = 0
KPA1 151713Z 27006KT 03/M03 A3026 RMK A01 T00311025  RH  067%=      5-min Rain = 0
KPA1 151714Z 27005KT 03/M03 A3026 RMK A01 T00311025  RH  067%=      5-min Rain = 0
KPA1 151715Z 28005KT 03/M03 A3026 RMK A01 T00311025  RH  067%=      5-min Rain = 0
KPA1 151716Z 27005KT 03/M02 A3026 RMK A01 T00311022  RH  068%=      5-min Rain = 0
KPA1 151717Z 27006KT 03/M02 A3026 RMK A01 T00321021  RH  069%=      5-min Rain = 0
KPA1 151718Z 27006KT 03/M02 A3026 RMK A01 T00321020  RH  069%=      5-min Rain = 0
KPA1 151719Z 28006KT 03/M02 A3026 RMK A01 T00321022  RH  068%=      5-min Rain = 0
KPA1 151720Z 27006KT 03/M02 A3026 RMK A01 T00321019  RH  069%=      5-min Rain = 0
KPA1 151721Z 28006KT 03/M02 A3026 RMK A01 T00321019  RH  069%=      5-min Rain = 0
KPA1 151722Z 28006KT 03/M02 A3026 RMK A01 T00321018  RH  070%=      5-min Rain = 0
KPA1 151723Z 27006KT 03/M02 A3026 RMK A01 T00321022  RH  068%=      5-min Rain = 0
KPA1 151724Z 27006KT 03/M02 A3026 RMK A01 T00321023  RH  067%=      5-min Rain = 0
KPA1 151725Z 27005KT 03/M02 A3026 RMK A01 T00331017  RH  070%=      5-min Rain = 0
KPA1 151726Z 28006KT 03/M02 A3025 RMK A01 T00341018  RH  069%=      5-min Rain = 0
KPA1 151727Z 27006KT 03/M02 A3025 RMK A01 T00341019  RH  068%=      5-min Rain = 0
KPA1 151728Z 28005KT 03/M02 A3025 RMK A01 T00341018  RH  068%=      5-min Rain = 0
KPA1 151729Z 26005KT 03/M02 A3025 RMK A01 T00341019  RH  068%=      5-min Rain = 0
KPA1 151730Z 27005KT 04/M02 A3025 RMK A01 T00351018  RH  068%=      5-min Rain = 0
KPA1 151731Z 28005KT 04/M02 A3026 RMK A01 T00361021  RH  066%=      5-min Rain = 0
KPA1 151732Z 27005KT 04/M02 A3026 RMK A01 T00361020  RH  066%=      5-min Rain = 0
KPA1 151733Z 28005KT 04/M02 A3026 RMK A01 T00371016  RH  068%=      5-min Rain = 0
KPA1 151734Z 28005KT 04/M01 A3025 RMK A01 T00381014  RH  069%=      5-min Rain = 0
KPA1 151735Z 27004KT 04/M02 A3025 RMK A01 T00391015  RH  068%=      5-min Rain = 0
KPA1 151736Z 27004KT 04/M01 A3025 RMK A01 T00391012  RH  069%=      5-min Rain = 0
KPA1 151737Z 27005KT 04/M02 A3025 RMK A01 T00401015  RH  068%=      5-min Rain = 0
KPA1 151738Z 26005KT 04/M01 A3025 RMK A01 T00401014  RH  068%=      5-min Rain = 0
KPA1 151739Z 24005KT 04/M02 A3025 RMK A01 T00411015  RH  067%=      5-min Rain = 0
KPA1 151740Z 24006KT 04/M02 A3025 RMK A01 T00411016  RH  066%=      5-min Rain = 0
KPA1 151741Z 25005KT 04/M02 A3025 RMK A01 T00411019  RH  065%=      5-min Rain = 0
KPA1 151742Z 26004KT 04/M02 A3025 RMK A01 T00411015  RH  067%=      5-min Rain = 0
KPA1 151743Z 25006KT 04/M01 A3025 RMK A01 T00431013  RH  067%=      5-min Rain = 0
KPA1 151744Z 25006KT 04/M02 A3025 RMK A01 T00431017  RH  065%=      5-min Rain = 0
KPA1 151745Z 26005KT 04/M02 A3025 RMK A01 T00431022  RH  063%=      5-min Rain = 0
KPA1 151746Z 25005KT 04/M03 A3025 RMK A01 T00431026  RH  061%=      5-min Rain = 0
KPA1 151747Z 25005KT 04/M03 A3025 RMK A01 T00441025  RH  061%=      5-min Rain = 0
KPA1 151748Z 25005KT 04/M02 A3025 RMK A01 T00441024  RH  061%=      5-min Rain = 0
KPA1 151749Z 26005KT 04/M02 A3025 RMK A01 T00441024  RH  061%=      5-min Rain = 0
KPA1 151750Z 26005KT 04/M02 A3025 RMK A01 T00441023  RH  061%=      5-min Rain = 0
KPA1 151751Z 26006KT 05/M02 A3025 RMK A01 T00451019  RH  063%=      5-min Rain = 0
KPA1 151752Z 25006KT 05/M02 A3025 RMK A01 T00461019  RH  063%=      5-min Rain = 0
KPA1 151753Z 24006KT 05/M02 A3025 RMK A01 T00461018  RH  063%=      5-min Rain = 0
KPA1 151754Z 25005KT 05/M01 A3025 RMK A01 T00471014  RH  064%=      5-min Rain = 0
KPA1 151755Z 24005KT 05/M01 A3025 RMK A01 T00481012  RH  065%=      5-min Rain = 0
KPA1 151756Z 26005KT 05/M02 A3025 RMK A01 T00481016  RH  063%=      5-min Rain = 0
KPA1 151757Z 24005KT 05/M02 A3025 RMK A01 T00481017  RH  063%=      5-min Rain = 0
KPA1 151758Z 26005KT 05/M02 A3025 RMK A01 T00481016  RH  063%=      5-min Rain = 0
KPA1 151759Z 27005KT 05/M02 A3025 RMK A01 T00491017  RH  062%=      5-min Rain = 0
KPA1 151800Z 25004KT 05/M01 A3025 RMK A01 T00501012  RH  064%=      5-min Rain = 0
KPA1 151801Z 27004KT 05/M01 A3025 RMK A01 T00511010  RH  065%=      5-min Rain = 0
KPA1 151802Z 26006KT 05/M01 A3025 RMK A01 T00511013  RH  063%=      5-min Rain = 0
KPA1 151803Z 24006KT 05/M01 A3025 RMK A01 T00521008  RH  065%=      5-min Rain = 0
KPA1 151804Z 22005KT 05/M01 A3025 RMK A01 T00521009  RH  065%=      5-min Rain = 0
KPA1 151805Z 23005KT 05/M01 A3025 RMK A01 T00521009  RH  065%=      5-min Rain = 0
KPA1 151806Z 25005KT 05/M00 A3025 RMK A01 T00531004  RH  067%=      5-min Rain = 0
KPA1 151807Z 23005KT 05/M00 A3024 RMK A01 T00541004  RH  066%=      5-min Rain = 0
KPA1 151808Z 24005KT 05/M00 A3024 RMK A01 T00541004  RH  066%=      5-min Rain = 0
KPA1 151809Z 24005KT 05/M01 A3024 RMK A01 T00541006  RH  065%=      5-min Rain = 0
KPA1 151810Z 25005KT 05/M01 A3024 RMK A01 T00541006  RH  065%=      5-min Rain = 0
KPA1 151811Z 24006KT 05/M01 A3024 RMK A01 T00541008  RH  065%=      5-min Rain = 0
KPA1 151812Z 25005KT 05/M01 A3024 RMK A01 T00531008  RH  064%=      5-min Rain = 0
KPA1 151813Z 24006KT 05/M01 A3024 RMK A01 T00541005  RH  066%=      5-min Rain = 0
KPA1 151814Z 24007KT 06/M00 A3024 RMK A01 T00551004  RH  066%=      5-min Rain = 0
KPA1 151815Z 24006KT 06/M01 A3024 RMK A01 T00551006  RH  065%=      5-min Rain = 0
KPA1 151816Z 25006KT 06/M01 A3024 RMK A01 T00551007  RH  064%=      5-min Rain = 0
KPA1 151817Z 27005KT 06/M01 A3024 RMK A01 T00551009  RH  064%=      5-min Rain = 0
KPA1 151818Z 27004KT 06/M01 A3024 RMK A01 T00551010  RH  063%=      5-min Rain = 0
KPA1 151819Z 25006KT 06/M01 A3024 RMK A01 T00561007  RH  064%=      5-min Rain = 0
KPA1 151820Z 25006KT 06/M01 A3024 RMK A01 T00561009  RH  063%=      5-min Rain = 0
KPA1 151821Z 25007KT 06/M01 A3024 RMK A01 T00571009  RH  063%=      5-min Rain = 0
KPA1 151822Z 24006KT 06/M01 A3024 RMK A01 T00571010  RH  062%=      5-min Rain = 0
KPA1 151823Z 25006KT 06/M01 A3024 RMK A01 T00571010  RH  062%=      5-min Rain = 0
KPA1 151824Z 24006KT 06/M01 A3024 RMK A01 T00581008  RH  063%=      5-min Rain = 0
KPA1 151825Z 26006KT 06/M00 A3024 RMK A01 T00591003  RH  064%=      5-min Rain = 0
KPA1 151826Z 25005KT 06/M00 A3024 RMK A01 T00611003  RH  064%=      5-min Rain = 0
KPA1 151827Z 26005KT 06/M01 A3024 RMK A01 T00621005  RH  062%=      5-min Rain = 0
KPA1 151828Z 25005KT 06/M01 A3024 RMK A01 T00621005  RH  062%=      5-min Rain = 0
KPA1 151829Z 25006KT 06/M00 A3024 RMK A01 T00631003  RH  063%=      5-min Rain = 0
KPA1 151830Z 24007KT 06/M00 A3024 RMK A01 T00631004  RH  062%=      5-min Rain = 0
KPA1 151831Z 25006KT 06/M01 A3023 RMK A01 T00631011  RH  059%=      5-min Rain = 0
KPA1 151832Z 25007KT 06/M01 A3023 RMK A01 T00631006  RH  061%=      5-min Rain = 0
KPA1 151833Z 26004KT 06/M01 A3023 RMK A01 T00641006  RH  061%=      5-min Rain = 0
KPA1 151834Z 25006KT 07/M00 A3023 RMK A01 T00651004  RH  061%=      5-min Rain = 0
KPA1 151835Z 26005KT 07/M01 A3023 RMK A01 T00651009  RH  059%=      5-min Rain = 0
KPA1 151836Z 26005KT 07/M01 A3023 RMK A01 T00651006  RH  061%=      5-min Rain = 0
KPA1 151837Z 28005KT 07/M01 A3023 RMK A01 T00661008  RH  059%=      5-min Rain = 0
KPA1 151838Z 28004KT 07/M01 A3023 RMK A01 T00661008  RH  059%=      5-min Rain = 0
KPA1 151839Z 26006KT 07/M01 A3023 RMK A01 T00661005  RH  060%=      5-min Rain = 0
KPA1 151840Z 26007KT 07/M00 A3023 RMK A01 T00681003  RH  061%=      5-min Rain = 0
KPA1 151841Z 28006KT 07/M01 A3023 RMK A01 T00681006  RH  059%=      5-min Rain = 0
KPA1 151842Z 27005KT 07/M01 A3023 RMK A01 T00671009  RH  058%=      5-min Rain = 0
KPA1 151843Z 28005KT 07/M01 A3023 RMK A01 T00681006  RH  059%=      5-min Rain = 0
KPA1 151844Z 28006KT 07/M01 A3023 RMK A01 T00681007  RH  059%=      5-min Rain = 0
KPA1 151845Z 28005KT 07/M01 A3023 RMK A01 T00681010  RH  058%=      5-min Rain = 0
KPA1 151846Z 29006KT 07/M00 A3023 RMK A01 T00681003  RH  061%=      5-min Rain = 0
KPA1 151847Z 26005KT 07/M00 A3023 RMK A01 T00691001  RH  061%=      5-min Rain = 0
KPA1 151848Z 26006KT 07/00 A3023 RMK A01 T00710003  RH  062%=      5-min Rain = 0
KPA1 151849Z 25006KT 07/M01 A3023 RMK A01 T00711006  RH  058%=      5-min Rain = 0
KPA1 151850Z 25006KT 07/M01 A3022 RMK A01 T00711008  RH  057%=      5-min Rain = 0
KPA1 151851Z 26007KT 07/M01 A3022 RMK A01 T00701008  RH  058%=      5-min Rain = 0
KPA1 151852Z 25006KT 07/M01 A3022 RMK A01 T00701008  RH  058%=      5-min Rain = 0
KPA1 151853Z 24006KT 07/M00 A3022 RMK A01 T00701002  RH  060%=      5-min Rain = 0
KPA1 151854Z 25005KT 07/M00 A3022 RMK A01 T00711001  RH  060%=      5-min Rain = 0
KPA1 151855Z 25004KT 07/00 A3022 RMK A01 T00730002  RH  061%=      5-min Rain = 0
KPA1 151856Z 25005KT 07/M00 A3022 RMK A01 T00741003  RH  058%=      5-min Rain = 0
KPA1 151857Z 25006KT 07/00 A3022 RMK A01 T00740001  RH  060%=      5-min Rain = 0
KPA1 151858Z 25006KT 08/00 A3022 RMK A01 T00750004  RH  061%=      5-min Rain = 0
KPA1 151859Z 24006KT 08/M00 A3022 RMK A01 T00761003  RH  058%=      5-min Rain = 0
KPA1 151900Z 24005KT 07/M01 A3022 RMK A01 T00741008  RH  056%=      5-min Rain = 0
KPA1 151901Z 25004G9KT 07/M00 A3022 RMK A01 T00731004  RH  058%=      5-min Rain = 0
KPA1 151902Z 24007KT 07/M00 A3021 RMK A01 T00741004  RH  058%=      5-min Rain = 0
KPA1 151903Z 24006KT 08/M00 A3021 RMK A01 T00761002  RH  058%=      5-min Rain = 0
KPA1 151904Z 25006KT 08/M00 A3021 RMK A01 T00781002  RH  057%=      5-min Rain = 0
KPA1 151905Z 26007KT 08/M01 A3021 RMK A01 T00781006  RH  055%=      5-min Rain = 0
KPA1 151906Z 27006KT 08/M01 A3021 RMK A01 T00781007  RH  055%=      5-min Rain = 0
KPA1 151907Z 28006KT 08/M01 A3021 RMK A01 T00771009  RH  054%=      5-min Rain = 0
KPA1 151908Z 26007KT 08/M01 A3021 RMK A01 T00771006  RH  056%=      5-min Rain = 0
KPA1 151909Z 26006KT 08/M01 A3021 RMK A01 T00781007  RH  055%=      5-min Rain = 0
KPA1 151910Z 26004KT 08/M01 A3021 RMK A01 T00781009  RH  054%=      5-min Rain = 0
KPA1 151911Z 25007KT 08/M01 A3021 RMK A01 T00791006  RH  055%=      5-min Rain = 0
KPA1 151912Z 24006KT 08/M00 A3021 RMK A01 T00811003  RH  055%=      5-min Rain = 0
KPA1 151913Z 25008KT 08/M00 A3021 RMK A01 T00821001  RH  056%=      5-min Rain = 0
KPA1 151914Z 25006KT 08/00 A3021 RMK A01 T00840002  RH  056%=      5-min Rain = 0
KPA1 151915Z 24004KT 09/M00 A3021 RMK A01 T00851002  RH  054%=      5-min Rain = 0
KPA1 151916Z 26005KT 08/M01 A3021 RMK A01 T00841005  RH  054%=      5-min Rain = 0
KPA1 151917Z 26004KT 08/M00 A3021 RMK A01 T00831002  RH  055%=      5-min Rain = 0
KPA1 151918Z 27005KT 08/M01 A3021 RMK A01 T00841005  RH  054%=      5-min Rain = 0
KPA1 151919Z 30006KT 08/00 A302 RMK A01 T00840001  RH  056%=      5-min Rain = 0
KPA1 151920Z 31006KT 09/00 A302 RMK A01 T00850001  RH  056%=      5-min Rain = 0
KPA1 151921Z 29005KT 09/M01 A302 RMK A01 T00851006  RH  053%=      5-min Rain = 0
KPA1 151922Z 30005KT 08/M00 A302 RMK A01 T00841003  RH  054%=      5-min Rain = 0
KPA1 151923Z 28007KT 09/01 A302 RMK A01 T00860005  RH  057%=      5-min Rain = 0
KPA1 151924Z 27007KT 09/M01 A302 RMK A01 T00861006  RH  052%=      5-min Rain = 0
KPA1 151925Z 25005KT 09/M01 A302 RMK A01 T00861007  RH  052%=      5-min Rain = 0
KPA1 151926Z 25005KT 09/M00 A302 RMK A01 T00861004  RH  053%=      5-min Rain = 0
KPA1 151927Z 26005KT 09/M01 A302 RMK A01 T00871005  RH  053%=      5-min Rain = 0
KPA1 151928Z 29006KT 09/00 A302 RMK A01 T00900003  RH  055%=      5-min Rain = 0
KPA1 151929Z 28006KT 09/00 A302 RMK A01 T00910000  RH  053%=      5-min Rain = 0
KPA1 151930Z 26005KT 09/M01 A302 RMK A01 T00911005  RH  051%=      5-min Rain = 0
KPA1 151931Z 27005KT 09/M01 A302 RMK A01 T00901011  RH  049%=      5-min Rain = 0
KPA1 151932Z 26005KT 09/M01 A3019 RMK A01 T00891007  RH  051%=      5-min Rain = 0
KPA1 151933Z 27007KT 09/00 A3019 RMK A01 T00910003  RH  054%=      5-min Rain = 0
KPA1 151934Z 27006KT 09/M01 A3019 RMK A01 T00921010  RH  049%=      5-min Rain = 0
KPA1 151935Z 28006KT 09/M01 A3019 RMK A01 T00901012  RH  049%=      5-min Rain = 0
KPA1 151936Z 27004KT 09/M01 A3019 RMK A01 T00891005  RH  052%=      5-min Rain = 0
KPA1 151937Z 27003KT 09/00 A3019 RMK A01 T009100-0  RH  053%=      5-min Rain = 0
KPA1 151938Z 27003KT 09/00 A3019 RMK A01 T00930000  RH  052%=      5-min Rain = 0
KPA1 151939Z 28006KT 09/M01 A3019 RMK A01 T00941008  RH  049%=      5-min Rain = 0
KPA1 151940Z 27007KT 09/M01 A3019 RMK A01 T00941009  RH  049%=      5-min Rain = 0
KPA1 151941Z 26009KT 09/M01 A3019 RMK A01 T00941005  RH  050%=      5-min Rain = 0
KPA1 151942Z 27008KT 09/M01 A3019 RMK A01 T00941008  RH  049%=      5-min Rain = 0
KPA1 151943Z 26005KT 09/M02 A3019 RMK A01 T00911018  RH  046%=      5-min Rain = 0
KPA1 151944Z 27005KT 09/M01 A3019 RMK A01 T00901014  RH  048%=      5-min Rain = 0
KPA1 151945Z 26005KT 09/M01 A3019 RMK A01 T00911008  RH  050%=      5-min Rain = 0
KPA1 151946Z 27005KT 09/M01 A3019 RMK A01 T00941007  RH  049%=      5-min Rain = 0
KPA1 151947Z 31005KT 09/M01 A3019 RMK A01 T00941012  RH  048%=      5-min Rain = 0
KPA1 151948Z 30004KT 09/M01 A3019 RMK A01 T00941010  RH  048%=      5-min Rain = 0
KPA1 151949Z 31004KT 10/M02 A3019 RMK A01 T00951015  RH  046%=      5-min Rain = 0
KPA1 151950Z 30003KT 10/M01 A3019 RMK A01 T00961007  RH  049%=      5-min Rain = 0
KPA1 151951Z 30003KT 10/M01 A3019 RMK A01 T00971009  RH  048%=      5-min Rain = 0
KPA1 151952Z 29006KT 10/M01 A3019 RMK A01 T00971007  RH  048%=      5-min Rain = 0
KPA1 151953Z 28006KT 10/M01 A3018 RMK A01 T00981009  RH  047%=      5-min Rain = 0
KPA1 151954Z 28003KT 10/M02 A3018 RMK A01 T00951020  RH  044%=      5-min Rain = 0
KPA1 151955Z 27003KT 09/M02 A3018 RMK A01 T00941020  RH  045%=      5-min Rain = 0
KPA1 151956Z 31005KT 10/M01 A3018 RMK A01 T00961005  RH  050%=      5-min Rain = 0
KPA1 151957Z 31005KT 10/M01 A3018 RMK A01 T00981011  RH  047%=      5-min Rain = 0
KPA1 151958Z 30004KT 10/M02 A3018 RMK A01 T00961021  RH  044%=      5-min Rain = 0
KPA1 151959Z 30003KT 10/M02 A3018 RMK A01 T00951020  RH  045%=      5-min Rain = 0
KPA1 152000Z 29005KT 10/M02 A3018 RMK A01 T00951019  RH  045%=      5-min Rain = 0
KPA1 152001Z 29004KT 10/M02 A3018 RMK A01 T00961017  RH  045%=      5-min Rain = 0
KPA1 152002Z 30003KT 10/M02 A3018 RMK A01 T00961022  RH  044%=      5-min Rain = 0
KPA1 152003Z 30005KT 10/M02 A3018 RMK A01 T00971022  RH  043%=      5-min Rain = 0
KPA1 152004Z 29006KT 10/M02 A3018 RMK A01 T00971016  RH  045%=      5-min Rain = 0
KPA1 152005Z 29009KT 10/M01 A3018 RMK A01 T00991011  RH  046%=      5-min Rain = 0
KPA1 152006Z 28007KT 10/M02 A3018 RMK A01 T01001020  RH  043%=      5-min Rain = 0
KPA1 152007Z 29005KT 10/M02 A3018 RMK A01 T00991022  RH  043%=      5-min Rain = 0
KPA1 152008Z 29005KT 10/M02 A3018 RMK A01 T00981024  RH  042%=      5-min Rain = 0
KPA1 152009Z 29006KT 10/M02 A3017 RMK A01 T00981024  RH  042%=      5-min Rain = 0
KPA1 152010Z 28004KT 10/M02 A3017 RMK A01 T00981022  RH  043%=      5-min Rain = 0
KPA1 152011Z 29009KT 10/M02 A3017 RMK A01 T00991016  RH  045%=      5-min Rain = 0
KPA1 152012Z 28008KT 10/M02 A3017 RMK A01 T01001022  RH  042%=      5-min Rain = 0
KPA1 152013Z 29004KT 10/M03 A3017 RMK A01 T00991027  RH  041%=      5-min Rain = 0
KPA1 152014Z 30002KT 10/M03 A3017 RMK A01 T00981029  RH  041%=      5-min Rain = 0
KPA1 152015Z 29005KT 10/M02 A3017 RMK A01 T00991015  RH  045%=      5-min Rain = 0
KPA1 152016Z 27006KT 10/M01 A3017 RMK A01 T01031006  RH  047%=      5-min Rain = 0
KPA1 152017Z 26006KT 11/M01 A3017 RMK A01 T01051012  RH  044%=      5-min Rain = 0
KPA1 152018Z 28006KT 11/M02 A3017 RMK A01 T01051015  RH  043%=      5-min Rain = 0
KPA1 152019Z 31008KT 11/M01 A3017 RMK A01 T01051011  RH  045%=      5-min Rain = 0
KPA1 152020Z 32006KT 11/M02 A3017 RMK A01 T01051017  RH  043%=      5-min Rain = 0
KPA1 152021Z 33003KT 10/M03 A3017 RMK A01 T01031026  RH  040%=      5-min Rain = 0
KPA1 152022Z 32004KT 10/M03 A3017 RMK A01 T01011026  RH  041%=      5-min Rain = 0
KPA1 152023Z 32008KT 10/M01 A3017 RMK A01 T01031010  RH  045%=      5-min Rain = 0
KPA1 152024Z 31005KT 10/M02 A3017 RMK A01 T01031022  RH  041%=      5-min Rain = 0
KPA1 152025Z 34002KT 10/M03 A3017 RMK A01 T01011028  RH  040%=      5-min Rain = 0
KPA1 152026Z 31003KT 10/M02 A3017 RMK A01 T01011022  RH  042%=      5-min Rain = 0
KPA1 152027Z 32002KT 10/M02 A3017 RMK A01 T01031021  RH  042%=      5-min Rain = 0
KPA1 152028Z 27004KT 10/M02 A3017 RMK A01 T01041018  RH  043%=      5-min Rain = 0
KPA1 152029Z 25006KT 11/M02 A3017 RMK A01 T01051021  RH  041%=      5-min Rain = 0
KPA1 152030Z 25004KT 10/M02 A3017 RMK A01 T01041022  RH  041%=      5-min Rain = 0
KPA1 152031Z 25002KT 10/M03 A3017 RMK A01 T01041026  RH  040%=      5-min Rain = 0
KPA1 152032Z 24004KT 10/M02 A3017 RMK A01 T01041019  RH  042%=      5-min Rain = 0
KPA1 152033Z 24006KT 11/M02 A3017 RMK A01 T01051022  RH  041%=      5-min Rain = 0
KPA1 152034Z 24004KT 10/M03 A3017 RMK A01 T01041026  RH  040%=      5-min Rain = 0
KPA1 152035Z 22001KT 11/M02 A3017 RMK A01 T01051018  RH  042%=      5-min Rain = 0
KPA1 152036Z 22003KT 11/M02 A3016 RMK A01 T01081017  RH  042%=      5-min Rain = 0
KPA1 152037Z 29008KT 11/M02 A3016 RMK A01 T01091017  RH  041%=      5-min Rain = 0
KPA1 152038Z 30006KT 11/M02 A3016 RMK A01 T01101021  RH  040%=      5-min Rain = 0
KPA1 152039Z 28007KT 11/M02 A3016 RMK A01 T01081023  RH  040%=      5-min Rain = 0
KPA1 152040Z 27005KT 11/M03 A3016 RMK A01 T01071026  RH  039%=      5-min Rain = 0
KPA1 152041Z 27004KT 11/M03 A3016 RMK A01 T01051028  RH  039%=      5-min Rain = 0
KPA1 152042Z 28007KT 11/M02 A3016 RMK A01 T01061021  RH  041%=      5-min Rain = 0
KPA1 152043Z 27008KT 11/M02 A3016 RMK A01 T01081019  RH  041%=      5-min Rain = 0
KPA1 152044Z 28006KT 11/M02 A3016 RMK A01 T01081024  RH  040%=      5-min Rain = 0
KPA1 152045Z 29006KT 11/M03 A3016 RMK A01 T01061030  RH  038%=      5-min Rain = 0
KPA1 152046Z 27007KT 11/M03 A3016 RMK A01 T01061028  RH  039%=      5-min Rain = 0
KPA1 152047Z 25006KT 11/M03 A3016 RMK A01 T01051029  RH  039%=      5-min Rain = 0
KPA1 152048Z 24005KT 11/M03 A3016 RMK A01 T01051029  RH  039%=      5-min Rain = 0
KPA1 152049Z 23005KT 11/M02 A3016 RMK A01 T01071020  RH  041%=      5-min Rain = 0
KPA1 152050Z 25007KT 11/M02 A3016 RMK A01 T01081021  RH  040%=      5-min Rain = 0
KPA1 152051Z 24005KT 11/M03 A3016 RMK A01 T01081028  RH  038%=      5-min Rain = 0
KPA1 152052Z 23006KT 11/M02 A3016 RMK A01 T01071024  RH  040%=      5-min Rain = 0
KPA1 152053Z 23005KT 11/M03 A3016 RMK A01 T01071027  RH  039%=      5-min Rain = 0
KPA1 152054Z 21003KT 11/M03 A3016 RMK A01 T01081028  RH  039%=      5-min Rain = 0
KPA1 152055Z 21002KT 11/M03 A3016 RMK A01 T01081029  RH  038%=      5-min Rain = 0
KPA1 152056Z 26005KT 11/M02 A3016 RMK A01 T01101018  RH  041%=      5-min Rain = 0
KPA1 152057Z 30005KT 11/M03 A3016 RMK A01 T01111026  RH  038%=      5-min Rain = 0
KPA1 152058Z 32003KT 11/M03 A3015 RMK A01 T01091030  RH  038%=      5-min Rain = 0
KPA1 152059Z 31001KT 11/M03 A3015 RMK A01 T01081028  RH  038%=      5-min Rain = 0
KPA1 152100Z 24003KT 11/M03 A3015 RMK A01 T01091028  RH  038%=      5-min Rain = 0
KPA1 152101Z 22004KT 11/M02 A3015 RMK A01 T01101023  RH  039%=      5-min Rain = 0
KPA1 152102Z 24002KT 11/M03 A3015 RMK A01 T01121025  RH  038%=      5-min Rain = 0
KPA1 152103Z 25002KT 11/M03 A3015 RMK A01 T01121029  RH  037%=      5-min Rain = 0
KPA1 152104Z 25004KT 11/M03 A3015 RMK A01 T01121025  RH  038%=      5-min Rain = 0
KPA1 152105Z 26007KT 11/M03 A3015 RMK A01 T01131026  RH  038%=      5-min Rain = 0
KPA1 152106Z 27006KT 11/M03 A3015 RMK A01 T01121027  RH  038%=      5-min Rain = 0
KPA1 152107Z 26004KT 11/M03 A3015 RMK A01 T01111029  RH  038%=      5-min Rain = 0
KPA1 152108Z 29003KT 11/M03 A3015 RMK A01 T01101025  RH  039%=      5-min Rain = 0
KPA1 152109Z 27002KT 11/M03 A3015 RMK A01 T01111031  RH  037%=      5-min Rain = 0
KPA1 152110Z 26006KT 11/M03 A3015 RMK A01 T01101029  RH  038%=      5-min Rain = 0
KPA1 152111Z 26009KT 11/M02 A3015 RMK A01 T01121024  RH  039%=      5-min Rain = 0
KPA1 152112Z 27008KT 11/M03 A3015 RMK A01 T01121025  RH  038%=      5-min Rain = 0
KPA1 152113Z 29006KT 11/M03 A3015 RMK A01 T01111028  RH  038%=      5-min Rain = 0
KPA1 152114Z 27004KT 11/M03 A3015 RMK A01 T01111027  RH  038%=      5-min Rain = 0
KPA1 152115Z 24005KT 11/M02 A3015 RMK A01 T01111022  RH  039%=      5-min Rain = 0
KPA1 152116Z 25006KT 11/M02 A3015 RMK A01 T01141018  RH  040%=      5-min Rain = 0
KPA1 152117Z 24007KT 12/M02 A3015 RMK A01 T01161016  RH  040%=      5-min Rain = 0
KPA1 152118Z 25008KT 12/M01 A3015 RMK A01 T01171014  RH  040%=      5-min Rain = 0
KPA1 152119Z 25006KT 12/M03 A3015 RMK A01 T01151026  RH  037%=      5-min Rain = 0
KPA1 152120Z 25006KT 11/M03 A3015 RMK A01 T01131028  RH  037%=      5-min Rain = 0
KPA1 152121Z 24004KT 11/M03 A3015 RMK A01 T01121029  RH  037%=      5-min Rain = 0
KPA1 152122Z 26002KT 11/M03 A3015 RMK A01 T01111031  RH  037%=      5-min Rain = 0
KPA1 152123Z 26004KT 11/M03 A3015 RMK A01 T01111029  RH  038%=      5-min Rain = 0
KPA1 152124Z 28008KT 11/M02 A3015 RMK A01 T01131020  RH  039%=      5-min Rain = 0
KPA1 152125Z 27007KT 12/M02 A3015 RMK A01 T01151024  RH  038%=      5-min Rain = 0
KPA1 152126Z 27009KT 11/M02 A3015 RMK A01 T01141023  RH  038%=      5-min Rain = 0
KPA1 152127Z 26007KT 11/M03 A3015 RMK A01 T01141025  RH  038%=      5-min Rain = 0
KPA1 152128Z 25008KT 11/M03 A3015 RMK A01 T01131029  RH  037%=      5-min Rain = 0
KPA1 152129Z 25006KT 11/M03 A3015 RMK A01 T01121029  RH  037%=      5-min Rain = 0
KPA1 152130Z 26005KT 11/M03 A3015 RMK A01 T01121027  RH  038%=      5-min Rain = 0
KPA1 152131Z 29004KT 11/M02 A3015 RMK A01 T01141024  RH  038%=      5-min Rain = 0
KPA1 152132Z 29005KT 11/M02 A3015 RMK A01 T01141023  RH  038%=      5-min Rain = 0
KPA1 152133Z 27004KT 12/M03 A3015 RMK A01 T01151027  RH  037%=      5-min Rain = 0
KPA1 152134Z 27005KT 11/M03 A3015 RMK A01 T01141027  RH  037%=      5-min Rain = 0
KPA1 152135Z 28003KT 11/M03 A3015 RMK A01 T01141030  RH  036%=      5-min Rain = 0
KPA1 152136Z 29003KT 11/M03 A3014 RMK A01 T01141032  RH  036%=      5-min Rain = 0
KPA1 152137Z 29005KT 11/M03 A3014 RMK A01 T01141026  RH  037%=      5-min Rain = 0
KPA1 152138Z 27003KT 12/M03 A3014 RMK A01 T01151028  RH  037%=      5-min Rain = 0
KPA1 152139Z 24003KT 12/M03 A3014 RMK A01 T01151033  RH  035%=      5-min Rain = 0
KPA1 152140Z 25005KT 12/M03 A3014 RMK A01 T01151029  RH  037%=      5-min Rain = 0
KPA1 152141Z 28004KT 12/M03 A3014 RMK A01 T01161030  RH  036%=      5-min Rain = 0
KPA1 152142Z 28005KT 12/M03 A3014 RMK A01 T01171026  RH  037%=      5-min Rain = 0
KPA1 152143Z 29006KT 12/M03 A3014 RMK A01 T01171026  RH  037%=      5-min Rain = 0
KPA1 152144Z 29005KT 12/M03 A3014 RMK A01 T01171028  RH  036%=      5-min Rain = 0
KPA1 152145Z 27004KT 12/M03 A3014 RMK A01 T01161032  RH  035%=      5-min Rain = 0
KPA1 152146Z 27002KT 12/M03 A3014 RMK A01 T01161033  RH  035%=      5-min Rain = 0
KPA1 152147Z 29004KT 12/M03 A3014 RMK A01 T01161031  RH  036%=      5-min Rain = 0
KPA1 152148Z 29006KT 12/M03 A3014 RMK A01 T01171029  RH  036%=      5-min Rain = 0
KPA1 152149Z 29008KT 12/M03 A3014 RMK A01 T01171026  RH  037%=      5-min Rain = 0
KPA1 152150Z 27005KT 12/M03 A3014 RMK A01 T01171029  RH  036%=      5-min Rain = 0
KPA1 152151Z 22004KT 12/M03 A3014 RMK A01 T01161027  RH  037%=      5-min Rain = 0
KPA1 152152Z 23003KT 12/M03 A3014 RMK A01 T01171030  RH  036%=      5-min Rain = 0
KPA1 152153Z 23007KT 12/M03 A3014 RMK A01 T01181025  RH  037%=      5-min Rain = 0
KPA1 152154Z 24008KT 12/M02 A3014 RMK A01 T01191020  RH  038%=      5-min Rain = 0
KPA1 152155Z 24005KT 12/M03 A3014 RMK A01 T01181028  RH  036%=      5-min Rain = 0
KPA1 152156Z 22004KT 12/M03 A3014 RMK A01 T01151029  RH  036%=      5-min Rain = 0
KPA1 152157Z 22003KT 12/M03 A3014 RMK A01 T01151030  RH  036%=      5-min Rain = 0
KPA1 152158Z 23004KT 12/M03 A3014 RMK A01 T01161026  RH  037%=      5-min Rain = 0
KPA1 152159Z 22005KT 12/M03 A3014 RMK A01 T01171025  RH  037%=      5-min Rain = 0
KPA1 152200Z 23006KT 12/M03 A3014 RMK A01 T01181028  RH  036%=      5-min Rain = 0
KPA1 152201Z 21004KT 12/M03 A3014 RMK A01 T01171030  RH  036%=      5-min Rain = 0
KPA1 152202Z 21004KT 12/M03 A3013 RMK A01 T01171029  RH  036%=      5-min Rain = 0
KPA1 152203Z 20002KT 12/M03 A3013 RMK A01 T01181028  RH  036%=      5-min Rain = 0
KPA1 152204Z 25003KT 12/M03 A3013 RMK A01 T01181029  RH  036%=      5-min Rain = 0
KPA1 152205Z 27004KT 12/M03 A3013 RMK A01 T01191029  RH  035%=      5-min Rain = 0
KPA1 152206Z 27005KT 12/M03 A3013 RMK A01 T01191025  RH  036%=      5-min Rain = 0
KPA1 152207Z 26004KT 12/M03 A3013 RMK A01 T01191031  RH  035%=      5-min Rain = 0
KPA1 152208Z 25005KT 12/M03 A3013 RMK A01 T01181030  RH  035%=      5-min Rain = 0
KPA1 152209Z 24004KT 12/M03 A3013 RMK A01 T01191027  RH  036%=      5-min Rain = 0
KPA1 152210Z 27004KT 12/M03 A3013 RMK A01 T01191032  RH  035%=      5-min Rain = 0
KPA1 152211Z 27005KT 12/M03 A3013 RMK A01 T01181030  RH  035%=      5-min Rain = 0
KPA1 152212Z 27005KT 12/M03 A3013 RMK A01 T01191032  RH  035%=      5-min Rain = 0
KPA1 152213Z 26002KT 12/M03 A3013 RMK A01 T01181034  RH  034%=      5-min Rain = 0
KPA1 152214Z 29004KT 12/M03 A3013 RMK A01 T01181032  RH  035%=      5-min Rain = 0
KPA1 152215Z 30003KT 12/M03 A3013 RMK A01 T01181034  RH  034%=      5-min Rain = 0
KPA1 152216Z 26004KT 12/M03 A3013 RMK A01 T01181031  RH  035%=      5-min Rain = 0
KPA1 152217Z 24004KT 12/M03 A3013 RMK A01 T01191032  RH  035%=      5-min Rain = 0
KPA1 152218Z 24004KT 12/M03 A3013 RMK A01 T01191029  RH  036%=      5-min Rain = 0
KPA1 152219Z 25006KT 12/M03 A3013 RMK A01 T01201032  RH  035%=      5-min Rain = 0
KPA1 152220Z 25006KT 12/M03 A3013 RMK A01 T01201031  RH  035%=      5-min Rain = 0
KPA1 152221Z 25005KT 12/M03 A3013 RMK A01 T01201032  RH  035%=      5-min Rain = 0
KPA1 152222Z 27004KT 12/M03 A3012 RMK A01 T01191034  RH  034%=      5-min Rain = 0
KPA1 152223Z 25004KT 12/M03 A3012 RMK A01 T01201031  RH  035%=      5-min Rain = 0
KPA1 152224Z 23007KT 12/M03 A3012 RMK A01 T01211029  RH  035%=      5-min Rain = 0
KPA1 152225Z 25007KT 12/M03 A3012 RMK A01 T01211028  RH  035%=      5-min Rain = 0
KPA1 152226Z 25006KT 12/M03 A3012 RMK A01 T01211031  RH  035%=      5-min Rain = 0
KPA1 152227Z 25003KT 12/M03 A3012 RMK A01 T01211031  RH  034%=      5-min Rain = 0
KPA1 152228Z 24003KT 12/M04 A3012 RMK A01 T01201037  RH  033%=      5-min Rain = 0
KPA1 152229Z 25006KT 12/M03 A3012 RMK A01 T01201032  RH  035%=      5-min Rain = 0
KPA1 152230Z 25006KT 12/M04 A3012 RMK A01 T01211036  RH  033%=      5-min Rain = 0
KPA1 152231Z 25006KT 12/M04 A3012 RMK A01 T01201036  RH  033%=      5-min Rain = 0
KPA1 152232Z 26005KT 12/M04 A3012 RMK A01 T01201036  RH  034%=      5-min Rain = 0
KPA1 152233Z 27006KT 12/M04 A3012 RMK A01 T01201035  RH  034%=      5-min Rain = 0
KPA1 152234Z 27005KT 12/M04 A3012 RMK A01 T01201037  RH  033%=      5-min Rain = 0
KPA1 152235Z 27004KT 12/M04 A3012 RMK A01 T01191038  RH  033%=      5-min Rain = 0
KPA1 152236Z 28004KT 12/M04 A3012 RMK A01 T01191039  RH  033%=      5-min Rain = 0
KPA1 152237Z 27004KT 12/M04 A3012 RMK A01 T01181040  RH  033%=      5-min Rain = 0
KPA1 152238Z 27003KT 12/M04 A3012 RMK A01 T01181037  RH  033%=      5-min Rain = 0
KPA1 152239Z 28003KT 12/M04 A3012 RMK A01 T01191038  RH  033%=      5-min Rain = 0
KPA1 152240Z 28002KT 12/M04 A3012 RMK A01 T01201038  RH  033%=      5-min Rain = 0
KPA1 152241Z 28003KT 12/M04 A3012 RMK A01 T01201036  RH  033%=      5-min Rain = 0
KPA1 152242Z 29004KT 12/M03 A3012 RMK A01 T01221031  RH  034%=      5-min Rain = 0
KPA1 152243Z 29004KT 12/M04 A3012 RMK A01 T01221035  RH  033%=      5-min Rain = 0
KPA1 152244Z 28003KT 12/M04 A3012 RMK A01 T01211035  RH  034%=      5-min Rain = 0
KPA1 152245Z 29006KT 12/M03 A3012 RMK A01 T01211032  RH  034%=      5-min Rain = 0
KPA1 152246Z 28005KT 12/M03 A3012 RMK A01 T01211033  RH  034%=      5-min Rain = 0
KPA1 152247Z 26005KT 12/M03 A3012 RMK A01 T01211029  RH  035%=      5-min Rain = 0
KPA1 152248Z 27004KT 12/M03 A3012 RMK A01 T01211030  RH  035%=      5-min Rain = 0
KPA1 152249Z 24004KT 12/M03 A3012 RMK A01 T01211029  RH  035%=      5-min Rain = 0
KPA1 152250Z 23006KT 12/M03 A3012 RMK A01 T01221028  RH  035%=      5-min Rain = 0
KPA1 152251Z 22006KT 12/M03 A3012 RMK A01 T01221027  RH  035%=      5-min Rain = 0
KPA1 152252Z 23006KT 12/M03 A3012 RMK A01 T01221028  RH  035%=      5-min Rain = 0
KPA1 152253Z 23005KT 12/M03 A3012 RMK A01 T01221027  RH  035%=      5-min Rain = 0
KPA1 152254Z 23005KT 12/M03 A3011 RMK A01 T01221029  RH  035%=      5-min Rain = 0
KPA1 152255Z 23005KT 12/M03 A3011 RMK A01 T01221032  RH  034%=      5-min Rain = 0
KPA1 152256Z 23004KT 12/M03 A3011 RMK A01 T01221031  RH  034%=      5-min Rain = 0
KPA1 152257Z 23003KT 12/M03 A3011 RMK A01 T01211034  RH  034%=      5-min Rain = 0
KPA1 152258Z 21005KT 12/M03 A3011 RMK A01 T01221028  RH  035%=      5-min Rain = 0
KPA1 152259Z 21007KT 12/M03 A3011 RMK A01 T01231029  RH  034%=      5-min Rain = 0
KPA1 152300Z 22006KT 12/M03 A3011 RMK A01 T01221027  RH  035%=      5-min Rain = 0
KPA1 152301Z 22005KT 12/M03 A3011 RMK A01 T01221027  RH  035%=      5-min Rain = 0
KPA1 152302Z 22004KT 12/M04 A3011 RMK A01 T01221035  RH  033%=      5-min Rain = 0
KPA1 152303Z 24004KT 12/M03 A3011 RMK A01 T01211032  RH  034%=      5-min Rain = 0
KPA1 152304Z 23004KT 12/M03 A3011 RMK A01 T01211028  RH  035%=      5-min Rain = 0
KPA1 152305Z 22004KT 12/M03 A3011 RMK A01 T01221027  RH  035%=      5-min Rain = 0
KPA1 152306Z 23003KT 12/M03 A3011 RMK A01 T01221034  RH  033%=      5-min Rain = 0
KPA1 152307Z 24003KT 12/M03 A3011 RMK A01 T01211034  RH  034%=      5-min Rain = 0
KPA1 152308Z 23003KT 12/M03 A3011 RMK A01 T01211029  RH  035%=      5-min Rain = 0
KPA1 152309Z 23003KT 12/M03 A3011 RMK A01 T01211033  RH  034%=      5-min Rain = 0
KPA1 152310Z 22005KT 12/M03 A3011 RMK A01 T01211030  RH  035%=      5-min Rain = 0
KPA1 152311Z 24005KT 12/M03 A3011 RMK A01 T01221025  RH  036%=      5-min Rain = 0
KPA1 152312Z 24005KT 12/M03 A3011 RMK A01 T01221028  RH  035%=      5-min Rain = 0
KPA1 152313Z 26004KT 12/M03 A3011 RMK A01 T01221029  RH  035%=      5-min Rain = 0
KPA1 152314Z 25004KT 12/M03 A3011 RMK A01 T01221030  RH  035%=      5-min Rain = 0
KPA1 152315Z 24003KT 12/M03 A3011 RMK A01 T01221034  RH  034%=      5-min Rain = 0
KPA1 152316Z 24002KT 12/M04 A3011 RMK A01 T01221035  RH  033%=      5-min Rain = 0
KPA1 152317Z 22002KT 12/M04 A3011 RMK A01 T01211036  RH  033%=      5-min Rain = 0
KPA1 152318Z 22004KT 12/M03 A3011 RMK A01 T01221027  RH  035%=      5-min Rain = 0
KPA1 152319Z 23004KT 12/M02 A3011 RMK A01 T01231021  RH  037%=      5-min Rain = 0
KPA1 152320Z 24003KT 12/M03 A3011 RMK A01 T01241027  RH  035%=      5-min Rain = 0
KPA1 152321Z 25004KT 12/M03 A3011 RMK A01 T01231032  RH  034%=      5-min Rain = 0
KPA1 152322Z 26004KT 12/M03 A3011 RMK A01 T01221032  RH  034%=      5-min Rain = 0
KPA1 152323Z 25003KT 12/M03 A3011 RMK A01 T01211033  RH  034%=      5-min Rain = 0
KPA1 152324Z 25003KT 12/M04 A3011 RMK A01 T01201036  RH  033%=      5-min Rain = 0
KPA1 152325Z 26004KT 12/M03 A3011 RMK A01 T01201033  RH  034%=      5-min Rain = 0
KPA1 152326Z 26003KT 12/M04 A3011 RMK A01 T01201035  RH  034%=      5-min Rain = 0
KPA1 152327Z 27003KT 12/M03 A3011 RMK A01 T01201033  RH  034%=      5-min Rain = 0
KPA1 152328Z 26002KT 12/M03 A3011 RMK A01 T01201028  RH  035%=      5-min Rain = 0
KPA1 152329Z 25002KT 12/M03 A3011 RMK A01 T01211027  RH  036%=      5-min Rain = 0
KPA1 152330Z 25002KT 12/M03 A3011 RMK A01 T01211032  RH  034%=      5-min Rain = 0
KPA1 152331Z 23002KT 12/M03 A3011 RMK A01 T01211026  RH  036%=      5-min Rain = 0
KPA1 152332Z 24003KT 12/M03 A3011 RMK A01 T01211026  RH  036%=      5-min Rain = 0
KPA1 152333Z 24003KT 12/M03 A3011 RMK A01 T01211025  RH  036%=      5-min Rain = 0
KPA1 152334Z 23002KT 12/M03 A3011 RMK A01 T01211030  RH  035%=      5-min Rain = 0
KPA1 152335Z 23004KT 12/M03 A3011 RMK A01 T01211028  RH  035%=      5-min Rain = 0
KPA1 152336Z 23005KT 12/M03 A3011 RMK A01 T01201027  RH  036%=      5-min Rain = 0
KPA1 152337Z 23005KT 12/M03 A3011 RMK A01 T01201025  RH  036%=      5-min Rain = 0
KPA1 152338Z 23005KT 12/M03 A3011 RMK A01 T01191030  RH  035%=      5-min Rain = 0
KPA1 152339Z 23004KT 12/M03 A3011 RMK A01 T01181028  RH  036%=      5-min Rain = 0
KPA1 152340Z 22004KT 12/M02 A3011 RMK A01 T01181024  RH  037%=      5-min Rain = 0
KPA1 152341Z 22005KT 12/M02 A3011 RMK A01 T01171022  RH  038%=      5-min Rain = 0
KPA1 152342Z 22005KT 12/M03 A3011 RMK A01 T01171025  RH  037%=      5-min Rain = 0
KPA1 152343Z 23005KT 12/M03 A3011 RMK A01 T01161025  RH  037%=      5-min Rain = 0
KPA1 152344Z 23005KT 12/M03 A3011 RMK A01 T01161025  RH  037%=      5-min Rain = 0
KPA1 152345Z 24005KT 12/M03 A3011 RMK A01 T01151027  RH  037%=      5-min Rain = 0
KPA1 152346Z 23004KT 12/M03 A301 RMK A01 T01151027  RH  037%=      5-min Rain = 0
KPA1 152347Z 22004KT 12/M02 A301 RMK A01 T01151024  RH  038%=      5-min Rain = 0
KPA1 152348Z 22004KT 11/M02 A301 RMK A01 T01141022  RH  039%=      5-min Rain = 0
KPA1 152349Z 22004KT 11/M02 A301 RMK A01 T01141023  RH  038%=      5-min Rain = 0
KPA1 152350Z 22005KT 11/M02 A301 RMK A01 T01141023  RH  038%=      5-min Rain = 0
KPA1 152351Z 23004KT 11/M03 A301 RMK A01 T01131025  RH  038%=      5-min Rain = 0
KPA1 152352Z 24004KT 11/M02 A301 RMK A01 T01131024  RH  038%=      5-min Rain = 0
KPA1 152353Z 24004KT 11/M02 A301 RMK A01 T01121022  RH  039%=      5-min Rain = 0
KPA1 152354Z 24004KT 11/M02 A301 RMK A01 T01111019  RH  040%=      5-min Rain = 0
KPA1 152355Z 24004KT 11/M02 A301 RMK A01 T01101018  RH  041%=      5-min Rain = 0
KPA1 152356Z 23004KT 11/M01 A301 RMK A01 T01091014  RH  042%=      5-min Rain = 0
KPA1 152357Z 23004KT 11/M01 A301 RMK A01 T01091012  RH  043%=      5-min Rain = 0
KPA1 152358Z 23004KT 11/M01 A301 RMK A01 T01081010  RH  044%=      5-min Rain = 0
KPA1 152359Z 22004KT 11/M01 A301 RMK A01 T01071008  RH  045%=      5-min Rain = 0
KPA1 160000Z 22004KT 11/M01 A301 RMK A01 T01071007  RH  045%=      5-min Rain = 0
KPA1 160001Z 22004KT 11/M01 A301 RMK A01 T01061006  RH  046%=      5-min Rain = 0
KPA1 160002Z 22004KT 11/M01 A301 RMK A01 T01051006  RH  046%=      5-min Rain = 0
KPA1 160003Z 21004KT 11/M01 A301 RMK A01 T01051006  RH  046%=      5-min Rain = 0
KPA1 160004Z 22004KT 10/M01 A301 RMK A01 T01031006  RH  047%=      5-min Rain = 0
KPA1 160005Z 22004KT 10/M01 A301 RMK A01 T01021006  RH  047%=      5-min Rain = 0
KPA1 160006Z 21004KT 10/M01 A301 RMK A01 T01011006  RH  048%=      5-min Rain = 0
KPA1 160007Z 21004KT 10/M01 A301 RMK A01 T01001006  RH  048%=      5-min Rain = 0
KPA1 160008Z 21004KT 10/M01 A301 RMK A01 T00991005  RH  048%=      5-min Rain = 0
KPA1 160009Z 21004KT 10/M00 A301 RMK A01 T00981004  RH  049%=      5-min Rain = 0
KPA1 160010Z 21004KT 10/M00 A301 RMK A01 T00961004  RH  050%=      5-min Rain = 0
KPA1 160011Z 21004KT 10/M00 A301 RMK A01 T00951003  RH  050%=      5-min Rain = 0
KPA1 160012Z 21005KT 09/M00 A301 RMK A01 T00941002  RH  051%=      5-min Rain = 0
KPA1 160013Z 20005KT 09/M00 A301 RMK A01 T00931001  RH  052%=      5-min Rain = 0
KPA1 160014Z 20005KT 09/00 A301 RMK A01 T00920001  RH  053%=      5-min Rain = 0
KPA1 160015Z 20005KT 09/00 A301 RMK A01 T00910002  RH  054%=      5-min Rain = 0
KPA1 160016Z 20005KT 09/01 A301 RMK A01 T00900005  RH  055%=      5-min Rain = 0
KPA1 160017Z 20005KT 09/01 A301 RMK A01 T00890007  RH  056%=      5-min Rain = 0
KPA1 160018Z 19004KT 09/01 A301 RMK A01 T00890008  RH  057%=      5-min Rain = 0
KPA1 160019Z 19004KT 09/01 A301 RMK A01 T00880009  RH  057%=      5-min Rain = 0
KPA1 160020Z 19004KT 09/01 A301 RMK A01 T00880010  RH  058%=      5-min Rain = 0
KPA1 160021Z 19005KT 09/01 A301 RMK A01 T00870011  RH  059%=      5-min Rain = 0
KPA1 160022Z 19005KT 09/01 A301 RMK A01 T00860010  RH  059%=      5-min Rain = 0
KPA1 160023Z 19006KT 08/01 A301 RMK A01 T00840007  RH  058%=      5-min Rain = 0
KPA1 160024Z 20006KT 08/00 A301 RMK A01 T00830004  RH  057%=      5-min Rain = 0
KPA1 160025Z 20006KT 08/00 A301 RMK A01 T00810003  RH  058%=      5-min Rain = 0
KPA1 160026Z 20006KT 08/00 A301 RMK A01 T00790004  RH  059%=      5-min Rain = 0
KPA1 160027Z 20006KT 08/01 A301 RMK A01 T00770005  RH  060%=      5-min Rain = 0
KPA1 160028Z 19006KT 08/01 A301 RMK A01 T00750005  RH  061%=      5-min Rain = 0
KPA1 160029Z 19006KT 07/01 A301 RMK A01 T00740005  RH  062%=      5-min Rain = 0
KPA1 160030Z 19005KT 07/01 A301 RMK A01 T00720005  RH  062%=      5-min Rain = 0
KPA1 160031Z 19005KT 07/00 A301 RMK A01 T00700004  RH  063%=      5-min Rain = 0
KPA1 160032Z 19005KT 07/01 A301 RMK A01 T00680005  RH  064%=      5-min Rain = 0
KPA1 160033Z 19005KT 07/01 A301 RMK A01 T00670006  RH  065%=      5-min Rain = 0
KPA1 160034Z 19005KT 07/01 A301 RMK A01 T00670008  RH  066%=      5-min Rain = 0
KPA1 160035Z 18004KT 07/01 A301 RMK A01 T00670009  RH  066%=      5-min Rain = 0
KPA1 160036Z 18005KT 07/01 A301 RMK A01 T00680009  RH  066%=      5-min Rain = 0
KPA1 160037Z 18005KT 07/01 A301 RMK A01 T00680008  RH  066%=      5-min Rain = 0
KPA1 160038Z 18005KT 07/01 A301 RMK A01 T00670006  RH  065%=      5-min Rain = 0
KPA1 160039Z 18005KT 07/00 A301 RMK A01 T00650003  RH  064%=      5-min Rain = 0
KPA1 160040Z 18004KT 06/00 A301 RMK A01 T00640001  RH  064%=      5-min Rain = 0
KPA1 160041Z 18003KT 06/00 A301 RMK A01 T00620001  RH  065%=      5-min Rain = 0
KPA1 160042Z 18003KT 06/00 A301 RMK A01 T00590002  RH  067%=      5-min Rain = 0
KPA1 160043Z 19003KT 06/00 A301 RMK A01 T00580004  RH  068%=      5-min Rain = 0
KPA1 160044Z 19003KT 06/01 A301 RMK A01 T00570007  RH  070%=      5-min Rain = 0
KPA1 160045Z 19003KT 06/01 A301 RMK A01 T00570010  RH  072%=      5-min Rain = 0
KPA1 160046Z 19003KT 06/01 A301 RMK A01 T00570011  RH  072%=      5-min Rain = 0
KPA1 160047Z 19003KT 06/01 A301 RMK A01 T00570013  RH  073%=      5-min Rain = 0
KPA1 160048Z 19003KT 06/02 A301 RMK A01 T00580017  RH  075%=      5-min Rain = 0
KPA1 160049Z 19003KT 06/02 A301 RMK A01 T00580017  RH  075%=      5-min Rain = 0
KPA1 160050Z 19003KT 06/02 A301 RMK A01 T00580016  RH  074%=      5-min Rain = 0
KPA1 160051Z 20003KT 06/02 A301 RMK A01 T00580015  RH  074%=      5-min Rain = 0
KPA1 160052Z 19003KT 06/01 A301 RMK A01 T00580014  RH  073%=      5-min Rain = 0
KPA1 160053Z 19003KT 06/01 A301 RMK A01 T00580014  RH  073%=      5-min Rain = 0
KPA1 160054Z 20003KT 06/01 A301 RMK A01 T00590013  RH  072%=      5-min Rain = 0
KPA1 160055Z 19003KT 06/01 A301 RMK A01 T00590013  RH  072%=      5-min Rain = 0
KPA1 160056Z 19004KT 06/01 A301 RMK A01 T00580012  RH  072%=      5-min Rain = 0
KPA1 160057Z 19003KT 06/01 A301 RMK A01 T00560012  RH  073%=      5-min Rain = 0
KPA1 160058Z 19003KT 05/01 A301 RMK A01 T00540012  RH  074%=      5-min Rain = 0
KPA1 160059Z 19003KT 05/01 A301 RMK A01 T00520011  RH  074%=      5-min Rain = 0
KPA1 160100Z 19004KT 05/01 A301 RMK A01 T00510011  RH  075%=      5-min Rain = 0
KPA1 160101Z 19004KT 05/01 A301 RMK A01 T00500010  RH  075%=      5-min Rain = 0
KPA1 160102Z 19003KT 05/01 A301 RMK A01 T00490010  RH  076%=      5-min Rain = 0
KPA1 160103Z 19003KT 05/01 A301 RMK A01 T00480009  RH  076%=      5-min Rain = 0
KPA1 160104Z 19003KT 05/01 A301 RMK A01 T00480009  RH  076%=      5-min Rain = 0
KPA1 160105Z 19004KT 05/01 A301 RMK A01 T00470009  RH  077%=      5-min Rain = 0
KPA1 160106Z 19003KT 05/01 A301 RMK A01 T00470009  RH  077%=      5-min Rain = 0
KPA1 160107Z 19004KT 05/01 A301 RMK A01 T00460009  RH  077%=      5-min Rain = 0
KPA1 160108Z 19004KT 05/01 A301 RMK A01 T00450009  RH  077%=      5-min Rain = 0
KPA1 160109Z 19004KT 05/01 A301 RMK A01 T00450009  RH  077%=      5-min Rain = 0
KPA1 160110Z 19004KT 05/01 A301 RMK A01 T00450008  RH  077%=      5-min Rain = 0
KPA1 160111Z 19004KT 05/01 A301 RMK A01 T00450008  RH  077%=      5-min Rain = 0
KPA1 160112Z 19004KT 05/01 A301 RMK A01 T00450008  RH  077%=      5-min Rain = 0
KPA1 160113Z 19004KT 05/01 A301 RMK A01 T00450008  RH  077%=      5-min Rain = 0
KPA1 160114Z 19004KT 05/01 A301 RMK A01 T00450008  RH  077%=      5-min Rain = 0
KPA1 160115Z 18004KT 04/01 A3011 RMK A01 T00440007  RH  077%=      5-min Rain = 0
KPA1 160116Z 19004KT 04/01 A301 RMK A01 T00420006  RH  077%=      5-min Rain = 0
KPA1 160117Z 18004KT 04/01 A301 RMK A01 T00410006  RH  078%=      5-min Rain = 0
KPA1 160118Z 19004KT 04/01 A301 RMK A01 T00410005  RH  078%=      5-min Rain = 0
KPA1 160119Z 19004KT 04/01 A301 RMK A01 T00410005  RH  078%=      5-min Rain = 0
KPA1 160120Z 19004KT 04/01 A301 RMK A01 T00410005  RH  078%=      5-min Rain = 0
KPA1 160121Z 19004KT 04/01 A301 RMK A01 T00410006  RH  078%=      5-min Rain = 0
KPA1 160122Z 19004KT 04/01 A301 RMK A01 T00400006  RH  078%=      5-min Rain = 0
KPA1 160123Z 19004KT 04/01 A301 RMK A01 T00390005  RH  078%=      5-min Rain = 0
KPA1 160124Z 19003KT 04/00 A3011 RMK A01 T00380004  RH  079%=      5-min Rain = 0
KPA1 160125Z 19003KT 04/00 A3011 RMK A01 T00370004  RH  079%=      5-min Rain = 0
KPA1 160126Z 19003KT 04/00 A3011 RMK A01 T00360004  RH  079%=      5-min Rain = 0
KPA1 160127Z 19003KT 04/00 A3011 RMK A01 T00360003  RH  079%=      5-min Rain = 0
KPA1 160128Z 19003KT 04/00 A3011 RMK A01 T00350003  RH  080%=      5-min Rain = 0
KPA1 160129Z 19003KT 04/00 A3011 RMK A01 T00350003  RH  080%=      5-min Rain = 0
KPA1 160130Z 19003KT 03/00 A3011 RMK A01 T00340003  RH  080%=      5-min Rain = 0
KPA1 160131Z 19003KT 03/00 A3011 RMK A01 T00330003  RH  081%=      5-min Rain = 0
KPA1 160132Z 19003KT 03/00 A3011 RMK A01 T00320002  RH  081%=      5-min Rain = 0
KPA1 160133Z 19003KT 03/00 A3011 RMK A01 T00310002  RH  081%=      5-min Rain = 0
KPA1 160134Z 19003KT 03/00 A3011 RMK A01 T00310002  RH  081%=      5-min Rain = 0
KPA1 160135Z 19003KT 03/00 A3011 RMK A01 T00310003  RH  082%=      5-min Rain = 0
KPA1 160136Z 19003KT 03/00 A3011 RMK A01 T00310003  RH  082%=      5-min Rain = 0
KPA1 160137Z 19002KT 03/00 A3011 RMK A01 T00310002  RH  081%=      5-min Rain = 0
KPA1 160138Z 19003KT 03/00 A3011 RMK A01 T00300001  RH  081%=      5-min Rain = 0
KPA1 160139Z 19003KT 03/00 A3011 RMK A01 T00300001  RH  081%=      5-min Rain = 0
KPA1 160140Z 19003KT 03/00 A3011 RMK A01 T00300001  RH  081%=      5-min Rain = 0
KPA1 160141Z 18003KT 03/00 A3011 RMK A01 T00300002  RH  081%=      5-min Rain = 0
KPA1 160142Z 18003KT 03/00 A3011 RMK A01 T00300001  RH  081%=      5-min Rain = 0
KPA1 160143Z 19003KT 03/00 A3011 RMK A01 T00300001  RH  081%=      5-min Rain = 0
KPA1 160144Z 18004KT 03/00 A3011 RMK A01 T00300002  RH  081%=      5-min Rain = 0
KPA1 160145Z 19004KT 03/00 A3011 RMK A01 T00300001  RH  081%=      5-min Rain = 0
KPA1 160146Z 19004KT 03/00 A3011 RMK A01 T00300001  RH  082%=      5-min Rain = 0
KPA1 160147Z 19004KT 03/00 A3011 RMK A01 T00300002  RH  082%=      5-min Rain = 0
KPA1 160148Z 19005KT 03/00 A3011 RMK A01 T00310002  RH  081%=      5-min Rain = 0
KPA1 160149Z 19004KT 03/00 A301 RMK A01 T00320002  RH  081%=      5-min Rain = 0
KPA1 160150Z 18004KT 03/00 A301 RMK A01 T00320001  RH  080%=      5-min Rain = 0
KPA1 160151Z 19005KT 03/00 A3011 RMK A01 T00330002  RH  080%=      5-min Rain = 0
KPA1 160152Z 19005KT 03/00 A3011 RMK A01 T00330002  RH  080%=      5-min Rain = 0
KPA1 160153Z 19004KT 03/00 A3011 RMK A01 T00330002  RH  080%=      5-min Rain = 0
KPA1 160154Z 19003KT 03/00 A3011 RMK A01 T00320001  RH  080%=      5-min Rain = 0
KPA1 160155Z 19003KT 03/00 A3011 RMK A01 T003100-0  RH  080%=      5-min Rain = 0
KPA1 160156Z 19004KT 03/00 A3011 RMK A01 T003000-0  RH  081%=      5-min Rain = 0
KPA1 160157Z 19004KT 03/M00 A3011 RMK A01 T00281001  RH  081%=      5-min Rain = 0
KPA1 160158Z 19004KT 03/00 A3011 RMK A01 T002800-0  RH  082%=      5-min Rain = 0
KPA1 160159Z 19004KT 03/00 A3011 RMK A01 T00270000  RH  082%=      5-min Rain = 0
KPA1 160200Z 19004KT 03/00 A3011 RMK A01 T00270001  RH  083%=      5-min Rain = 0
KPA1 160201Z 19004KT 03/00 A3011 RMK A01 T00270001  RH  083%=      5-min Rain = 0
KPA1 160202Z 19004KT 03/00 A3011 RMK A01 T00270002  RH  083%=      5-min Rain = 0
KPA1 160203Z 19004KT 03/00 A3011 RMK A01 T00270002  RH  084%=      5-min Rain = 0
KPA1 160204Z 19004KT 03/00 A3011 RMK A01 T00270002  RH  083%=      5-min Rain = 0
KPA1 160205Z 19003KT 03/00 A3011 RMK A01 T00270000  RH  082%=      5-min Rain = 0
KPA1 160206Z 19004KT 03/M00 A3011 RMK A01 T00271002  RH  082%=      5-min Rain = 0
KPA1 160207Z 19004KT 03/M00 A3011 RMK A01 T00261003  RH  082%=      5-min Rain = 0
KPA1 160208Z 19005KT 03/M00 A301 RMK A01 T00251004  RH  081%=      5-min Rain = 0
KPA1 160209Z 19005KT 03/M00 A301 RMK A01 T00251004  RH  081%=      5-min Rain = 0
KPA1 160210Z 19004KT 02/M01 A301 RMK A01 T00241006  RH  080%=      5-min Rain = 0
KPA1 160211Z 18004KT 02/M01 A301 RMK A01 T00231007  RH  080%=      5-min Rain = 0
KPA1 160212Z 19004KT 02/M01 A301 RMK A01 T00221008  RH  080%=      5-min Rain = 0
KPA1 160213Z 19003KT 02/M01 A301 RMK A01 T00221008  RH  080%=      5-min Rain = 0
KPA1 160214Z 19004KT 02/M01 A3011 RMK A01 T00221008  RH  081%=      5-min Rain = 0
KPA1 160215Z 19004KT 02/M01 A3011 RMK A01 T00221008  RH  081%=      5-min Rain = 0
KPA1 160216Z 19003KT 02/M01 A3011 RMK A01 T00211008  RH  081%=      5-min Rain = 0
KPA1 160217Z 19004KT 02/M01 A3011 RMK A01 T00201009  RH  081%=      5-min Rain = 0
KPA1 160218Z 20004KT 02/M01 A3011 RMK A01 T00191010  RH  081%=      5-min Rain = 0
KPA1 160219Z 20004KT 02/M01 A3011 RMK A01 T00181011  RH  081%=      5-min Rain = 0
KPA1 160220Z 19004KT 02/M01 A3011 RMK A01 T00161012  RH  082%=      5-min Rain = 0
KPA1 160221Z 19004KT 02/M01 A3011 RMK A01 T00151011  RH  083%=      5-min Rain = 0
KPA1 160222Z 19004KT 02/M01 A3011 RMK A01 T00151010  RH  083%=      5-min Rain = 0
KPA1 160223Z 18004KT 02/M01 A3011 RMK A01 T00151010  RH  083%=      5-min Rain = 0
KPA1 160224Z 18004KT 02/M01 A3011 RMK A01 T00161010  RH  083%=      5-min Rain = 0
KPA1 160225Z 19005KT 02/M01 A3011 RMK A01 T00151011  RH  083%=      5-min Rain = 0
KPA1 160226Z 19005KT 02/M01 A3011 RMK A01 T00151012  RH  083%=      5-min Rain = 0
KPA1 160227Z 19005KT 02/M01 A3011 RMK A01 T00161010  RH  083%=      5-min Rain = 0
KPA1 160228Z 19005KT 02/M01 A3011 RMK A01 T00161012  RH  082%=      5-min Rain = 0
KPA1 160229Z 19005KT 02/M01 A3011 RMK A01 T00151012  RH  082%=      5-min Rain = 0
KPA1 160230Z 19005KT 02/M01 A3011 RMK A01 T00151011  RH  083%=      5-min Rain = 0
KPA1 160231Z 19005KT 02/M01 A3011 RMK A01 T00161010  RH  083%=      5-min Rain = 0
KPA1 160232Z 19005KT 02/M01 A3011 RMK A01 T00151012  RH  082%=      5-min Rain = 0
KPA1 160233Z 18005KT 01/M01 A3011 RMK A01 T00141013  RH  082%=      5-min Rain = 0
KPA1 160234Z 18004KT 01/M01 A3011 RMK A01 T00121014  RH  083%=      5-min Rain = 0
KPA1 160235Z 18004KT 01/M01 A3011 RMK A01 T00111014  RH  083%=      5-min Rain = 0
KPA1 160236Z 19004KT 01/M01 A3011 RMK A01 T00111013  RH  084%=      5-min Rain = 0
KPA1 160237Z 19004KT 01/M01 A3011 RMK A01 T00111013  RH  084%=      5-min Rain = 0
KPA1 160238Z 19004KT 01/M01 A3011 RMK A01 T00101013  RH  084%=      5-min Rain = 0
KPA1 160239Z 19004KT 01/M01 A3011 RMK A01 T00111012  RH  085%=      5-min Rain = 0
KPA1 160240Z 19004KT 01/M01 A3011 RMK A01 T00121011  RH  085%=      5-min Rain = 0
KPA1 160241Z 19004KT 01/M01 A3011 RMK A01 T00131010  RH  085%=      5-min Rain = 0
KPA1 160242Z 19005KT 01/M01 A3011 RMK A01 T00141010  RH  084%=      5-min Rain = 0
KPA1 160243Z 19004KT 01/M01 A3011 RMK A01 T00141010  RH  084%=      5-min Rain = 0
KPA1 160244Z 19004KT 01/M01 A3011 RMK A01 T00141012  RH  083%=      5-min Rain = 0
KPA1 160245Z 19004KT 01/M01 A3011 RMK A01 T00131012  RH  083%=      5-min Rain = 0
KPA1 160246Z 19004KT 01/M01 A3011 RMK A01 T00131012  RH  083%=      5-min Rain = 0
KPA1 160247Z 18005KT 01/M01 A3011 RMK A01 T00131012  RH  083%=      5-min Rain = 0
KPA1 160248Z 18005KT 01/M01 A3011 RMK A01 T00131011  RH  084%=      5-min Rain = 0
KPA1 160249Z 19005KT 01/M01 A3011 RMK A01 T00141011  RH  084%=      5-min Rain = 0
KPA1 160250Z 19004KT 01/M01 A3011 RMK A01 T00141012  RH  083%=      5-min Rain = 0
KPA1 160251Z 20004KT 01/M01 A3011 RMK A01 T00131013  RH  083%=      5-min Rain = 0
KPA1 160252Z 19005KT 01/M01 A3011 RMK A01 T00121014  RH  083%=      5-min Rain = 0
KPA1 160253Z 19004KT 01/M01 A3011 RMK A01 T00111014  RH  083%=      5-min Rain = 0
KPA1 160254Z 19004KT 01/M01 A3011 RMK A01 T00111014  RH  083%=      5-min Rain = 0
KPA1 160255Z 19004KT 01/M01 A3011 RMK A01 T00101014  RH  084%=      5-min Rain = 0
KPA1 160256Z 19004KT 01/M01 A3011 RMK A01 T00101014  RH  084%=      5-min Rain = 0
KPA1 160257Z 19005KT 01/M01 A3011 RMK A01 T00101013  RH  084%=      5-min Rain = 0
KPA1 160258Z 19004KT 01/M01 A3011 RMK A01 T00111013  RH  084%=      5-min Rain = 0
KPA1 160259Z 19005KT 01/M01 A3011 RMK A01 T00111013  RH  084%=      5-min Rain = 0
KPA1 160300Z 19005KT 01/M01 A3011 RMK A01 T00111014  RH  084%=      5-min Rain = 0
KPA1 160301Z 19005KT 01/M01 A3011 RMK A01 T00111014  RH  083%=      5-min Rain = 0
KPA1 160302Z 19005KT 01/M01 A3011 RMK A01 T00111014  RH  083%=      5-min Rain = 0
KPA1 160303Z 19004KT 01/M02 A3011 RMK A01 T00111015  RH  083%=      5-min Rain = 0
KPA1 160304Z 19005KT 01/M02 A3011 RMK A01 T00101016  RH  083%=      5-min Rain = 0
KPA1 160305Z 19006KT 01/M02 A3011 RMK A01 T00091017  RH  083%=      5-min Rain = 0
KPA1 160306Z 19006KT 01/M02 A3011 RMK A01 T00081018  RH  083%=      5-min Rain = 0
KPA1 160307Z 19006KT 01/M02 A3011 RMK A01 T00071018  RH  083%=      5-min Rain = 0
KPA1 160308Z 19005KT 01/M02 A3011 RMK A01 T00061020  RH  083%=      5-min Rain = 0
KPA1 160309Z 18005KT 01/M02 A3011 RMK A01 T00051020  RH  083%=      5-min Rain = 0
KPA1 160310Z 18005KT 01/M02 A3011 RMK A01 T00051019  RH  084%=      5-min Rain = 0
KPA1 160311Z 18005KT 01/M02 A3011 RMK A01 T00051018  RH  084%=      5-min Rain = 0
KPA1 160312Z 18005KT 01/M02 A3011 RMK A01 T00061017  RH  084%=      5-min Rain = 0
KPA1 160313Z 19005KT 01/M02 A3011 RMK A01 T00071017  RH  084%=      5-min Rain = 0
KPA1 160314Z 19005KT 01/M02 A3011 RMK A01 T00071017  RH  084%=      5-min Rain = 0
KPA1 160315Z 19005KT 01/M02 A3011 RMK A01 T00071017  RH  084%=      5-min Rain = 0
KPA1 160316Z 19005KT 01/M02 A3011 RMK A01 T00081017  RH  084%=      5-min Rain = 0
KPA1 160317Z 19005KT 01/M02 A3011 RMK A01 T00091016  RH  083%=      5-min Rain = 0
KPA1 160318Z 19004KT 01/M02 A3011 RMK A01 T00101015  RH  083%=      5-min Rain = 0
KPA1 160319Z 19004KT 01/M02 A3011 RMK A01 T00111015  RH  082%=      5-min Rain = 0
KPA1 160320Z 19003KT 01/M02 A3011 RMK A01 T00121015  RH  082%=      5-min Rain = 0
KPA1 160321Z 20003KT 01/M02 A3011 RMK A01 T00121015  RH  082%=      5-min Rain = 0
KPA1 160322Z 20003KT 01/M02 A3011 RMK A01 T00121016  RH  081%=      5-min Rain = 0
KPA1 160323Z 19004KT 01/M02 A3011 RMK A01 T00111017  RH  081%=      5-min Rain = 0
KPA1 160324Z 19004KT 01/M02 A3011 RMK A01 T00111017  RH  082%=      5-min Rain = 0
KPA1 160325Z 20004KT 01/M02 A3011 RMK A01 T00101017  RH  082%=      5-min Rain = 0
KPA1 160326Z 20003KT 01/M02 A3011 RMK A01 T00101016  RH  082%=      5-min Rain = 0
KPA1 160327Z 20004KT 01/M02 A3011 RMK A01 T00101017  RH  082%=      5-min Rain = 0
KPA1 160328Z 20004KT 01/M02 A3011 RMK A01 T00101017  RH  082%=      5-min Rain = 0
KPA1 160329Z 20004KT 01/M02 A3011 RMK A01 T00101016  RH  082%=      5-min Rain = 0
KPA1 160330Z 20004KT 01/M02 A3011 RMK A01 T00101017  RH  083%=      5-min Rain = 0
KPA1 160331Z 20004KT 01/M02 A3011 RMK A01 T00101017  RH  083%=      5-min Rain = 0
KPA1 160332Z 20004KT 01/M02 A3011 RMK A01 T00101017  RH  083%=      5-min Rain = 0
KPA1 160333Z 20004KT 01/M02 A3011 RMK A01 T00091017  RH  083%=      5-min Rain = 0
KPA1 160334Z 20004KT 01/M02 A3011 RMK A01 T00101016  RH  083%=      5-min Rain = 0
KPA1 160335Z 20005KT 01/M02 A3011 RMK A01 T00101016  RH  083%=      5-min Rain = 0
KPA1 160336Z 20004KT 01/M02 A3011 RMK A01 T00101016  RH  083%=      5-min Rain = 0
KPA1 160337Z 19004KT 01/M02 A3011 RMK A01 T00111015  RH  083%=      5-min Rain = 0
KPA1 160338Z 19004KT 01/M02 A3011 RMK A01 T00111015  RH  083%=      5-min Rain = 0
KPA1 160339Z 19004KT 01/M02 A3011 RMK A01 T00121015  RH  082%=      5-min Rain = 0
KPA1 160340Z 19004KT 01/M01 A3011 RMK A01 T00131014  RH  082%=      5-min Rain = 0
KPA1 160341Z 19004KT 01/M01 A3011 RMK A01 T00141014  RH  082%=      5-min Rain = 0
KPA1 160342Z 19004KT 02/M01 A3011 RMK A01 T00151014  RH  081%=      5-min Rain = 0
KPA1 160343Z 19004KT 02/M01 A3011 RMK A01 T00151014  RH  081%=      5-min Rain = 0
KPA1 160344Z 19004KT 02/M01 A3011 RMK A01 T00151014  RH  081%=      5-min Rain = 0
KPA1 160345Z 19003KT 02/M02 A3011 RMK A01 T00151015  RH  081%=      5-min Rain = 0
KPA1 160346Z 19003KT 02/M02 A3011 RMK A01 T00151015  RH  081%=      5-min Rain = 0
KPA1 160347Z 19003KT 02/M01 A3011 RMK A01 T00161014  RH  081%=      5-min Rain = 0
KPA1 160348Z 19003KT 02/M01 A3011 RMK A01 T00161014  RH  080%=      5-min Rain = 0
KPA1 160349Z 19003KT 02/M01 A3011 RMK A01 T00161014  RH  081%=      5-min Rain = 0
KPA1 160350Z 18003KT 02/M01 A3011 RMK A01 T00151014  RH  081%=      5-min Rain = 0
KPA1 160351Z 19003KT 02/M01 A3011 RMK A01 T00151014  RH  081%=      5-min Rain = 0
KPA1 160352Z 19003KT 02/M01 A3011 RMK A01 T00161014  RH  081%=      5-min Rain = 0
KPA1 160353Z 19004KT 02/M01 A3011 RMK A01 T00161014  RH  081%=      5-min Rain = 0
KPA1 160354Z 19003KT 02/M01 A3011 RMK A01 T00161014  RH  080%=      5-min Rain = 0
KPA1 160355Z 19003KT 02/M01 A3011 RMK A01 T00161014  RH  080%=      5-min Rain = 0
KPA1 160356Z 19004KT 02/M01 A3011 RMK A01 T00161014  RH  080%=      5-min Rain = 0
KPA1 160357Z 19004KT 02/M01 A3011 RMK A01 T00161014  RH  080%=      5-min Rain = 0
KPA1 160358Z 19003KT 02/M01 A3011 RMK A01 T00161014  RH  080%=      5-min Rain = 0
KPA1 160359Z 20004KT 02/M01 A3011 RMK A01 T00161013  RH  081%=      5-min Rain = 0
KPA1 160400Z 19003KT 02/M01 A3011 RMK A01 T00171013  RH  080%=      5-min Rain = 0
KPA1 160401Z 19003KT 02/M01 A3011 RMK A01 T00171014  RH  080%=      5-min Rain = 0
KPA1 160402Z 19004KT 02/M02 A3011 RMK A01 T00161015  RH  080%=      5-min Rain = 0
KPA1 160403Z 19004KT 02/M02 A3011 RMK A01 T00151016  RH  080%=      5-min Rain = 0
KPA1 160404Z 19004KT 02/M02 A3011 RMK A01 T00151016  RH  080%=      5-min Rain = 0
KPA1 160405Z 19004KT 02/M02 A3011 RMK A01 T00151017  RH  080%=      5-min Rain = 0
KPA1 160406Z 19005KT 01/M02 A3011 RMK A01 T00141017  RH  080%=      5-min Rain = 0
KPA1 160407Z 19005KT 01/M02 A3011 RMK A01 T00121019  RH  080%=      5-min Rain = 0
KPA1 160408Z 19005KT 01/M02 A3011 RMK A01 T00111019  RH  081%=      5-min Rain = 0
KPA1 160409Z 20004KT 01/M02 A3011 RMK A01 T00101019  RH  081%=      5-min Rain = 0
KPA1 160410Z 20005KT 01/M02 A3011 RMK A01 T00081021  RH  081%=      5-min Rain = 0
KPA1 160411Z 20004KT 01/M02 A3011 RMK A01 T00071021  RH  081%=      5-min Rain = 0
KPA1 160412Z 20004KT 01/M02 A3011 RMK A01 T00051022  RH  082%=      5-min Rain = 0
KPA1 160413Z 20005KT 00/M02 A3011 RMK A01 T00041023  RH  082%=      5-min Rain = 0
KPA1 160414Z 20005KT 00/M02 A3011 RMK A01 T00031023  RH  083%=      5-min Rain = 0
KPA1 160415Z 20005KT 00/M02 A3011 RMK A01 T00021024  RH  083%=      5-min Rain = 0
KPA1 160416Z 19005KT 00/M02 A3011 RMK A01 T00011023  RH  084%=      5-min Rain = 0
KPA1 160417Z 19005KT 00/M02 A3011 RMK A01 T00011023  RH  084%=      5-min Rain = 0
KPA1 160418Z 19005KT 00/02 A3011 RMK A01 T00000-22  RH  085%=      5-min Rain = 0
KPA1 160419Z 20004KT 00/02 A3011 RMK A01 T00000-21  RH  085%=      5-min Rain = 0
KPA1 160420Z 20005KT 00/02 A3011 RMK A01 T00-00-22  RH  085%=      5-min Rain = 0
KPA1 160421Z 20004KT M00/M02 A3011 RMK A01 T10011023  RH  085%=      5-min Rain = 0
KPA1 160422Z 20004KT M00/M02 A3011 RMK A01 T10011023  RH  085%=      5-min Rain = 0
KPA1 160423Z 20005KT M00/M02 A3011 RMK A01 T10011022  RH  086%=      5-min Rain = 0
KPA1 160424Z 20005KT M00/M02 A3011 RMK A01 T10011022  RH  086%=      5-min Rain = 0
KPA1 160425Z 20005KT M00/M02 A3011 RMK A01 T10011021  RH  086%=      5-min Rain = 0
KPA1 160426Z 20005KT 00/02 A3011 RMK A01 T00-00-20  RH  086%=      5-min Rain = 0
KPA1 160427Z 20004KT 00/M02 A3011 RMK A01 T00011020  RH  086%=      5-min Rain = 0
KPA1 160428Z 20005KT 00/M02 A3011 RMK A01 T00011020  RH  086%=      5-min Rain = 0
KPA1 160429Z 20005KT 00/M02 A3011 RMK A01 T00011020  RH  086%=      5-min Rain = 0
KPA1 160430Z 20005KT 00/M02 A3011 RMK A01 T00021019  RH  086%=      5-min Rain = 0
KPA1 160431Z 20005KT 00/M02 A3011 RMK A01 T00021020  RH  086%=      5-min Rain = 0
KPA1 160432Z 20005KT 00/M02 A3011 RMK A01 T00021019  RH  085%=      5-min Rain = 0
KPA1 160433Z 20005KT 00/M02 A3011 RMK A01 T00021020  RH  085%=      5-min Rain = 0
KPA1 160434Z 19005KT 00/M02 A3011 RMK A01 T00021020  RH  085%=      5-min Rain = 0
KPA1 160435Z 19005KT 00/M02 A3011 RMK A01 T00031020  RH  085%=      5-min Rain = 0
KPA1 160436Z 19005KT 00/M02 A3011 RMK A01 T00031020  RH  085%=      5-min Rain = 0
KPA1 160437Z 19006KT 00/M02 A301 RMK A01 T00021020  RH  085%=      5-min Rain = 0
KPA1 160438Z 19006KT 00/M02 A301 RMK A01 T00011021  RH  085%=      5-min Rain = 0
KPA1 160439Z 19006KT 00/M02 A301 RMK A01 T00011020  RH  085%=      5-min Rain = 0
KPA1 160440Z 19006KT 00/M02 A301 RMK A01 T00011020  RH  086%=      5-min Rain = 0
KPA1 160441Z 19006KT 00/M02 A301 RMK A01 T00011021  RH  086%=      5-min Rain = 0
KPA1 160442Z 19006KT 00/M02 A301 RMK A01 T00011021  RH  086%=      5-min Rain = 0
KPA1 160443Z 19006KT 00/02 A301 RMK A01 T00-00-21  RH  086%=      5-min Rain = 0
KPA1 160444Z 19006KT M00/M02 A301 RMK A01 T10011022  RH  086%=      5-min Rain = 0
KPA1 160445Z 19006KT M00/M02 A301 RMK A01 T10011022  RH  086%=      5-min Rain = 0
KPA1 160446Z 19005KT M00/M02 A301 RMK A01 T10031023  RH  086%=      5-min Rain = 0
KPA1 160447Z 19005KT M00/M02 A301 RMK A01 T10031023  RH  087%=      5-min Rain = 0
KPA1 160448Z 20005KT M00/M02 A301 RMK A01 T10041023  RH  087%=      5-min Rain = 0
KPA1 160449Z 19005KT M00/M02 A301 RMK A01 T10041023  RH  087%=      5-min Rain = 0
KPA1 160450Z 19005KT M00/M02 A301 RMK A01 T10041022  RH  088%=      5-min Rain = 0
KPA1 160451Z 19004KT M00/M02 A301 RMK A01 T10041022  RH  088%=      5-min Rain = 0
KPA1 160452Z 19004KT M00/M02 A301 RMK A01 T10041021  RH  088%=      5-min Rain = 0
KPA1 160453Z 19005KT M00/M02 A301 RMK A01 T10041021  RH  088%=      5-min Rain = 0
KPA1 160454Z 19005KT M00/M02 A301 RMK A01 T10041020  RH  089%=      5-min Rain = 0
KPA1 160455Z 18005KT M00/M02 A301 RMK A01 T10031020  RH  089%=      5-min Rain = 0
KPA1 160456Z 19005KT M00/M02 A301 RMK A01 T10031020  RH  089%=      5-min Rain = 0
KPA1 160457Z 19005KT M00/M02 A301 RMK A01 T10031020  RH  089%=      5-min Rain = 0
KPA1 160458Z 19005KT M00/M02 A301 RMK A01 T10041020  RH  089%=      5-min Rain = 0
KPA1 160459Z 19005KT M00/M02 A301 RMK A01 T10041020  RH  089%=      5-min Rain = 0
KPA1 160500Z 19005KT M00/M02 A301 RMK A01 T10031019  RH  089%=      5-min Rain = 0
KPA1 160501Z 19005KT M00/M02 A301 RMK A01 T10031019  RH  089%=      5-min Rain = 0
KPA1 160502Z 19005KT M00/M02 A301 RMK A01 T10031020  RH  089%=      5-min Rain = 0
KPA1 160503Z 19005KT M00/M02 A301 RMK A01 T10031020  RH  088%=      5-min Rain = 0
KPA1 160504Z 19004KT M00/M02 A301 RMK A01 T10041021  RH  088%=      5-min Rain = 0
KPA1 160505Z 19004KT M00/M02 A301 RMK A01 T10041021  RH  088%=      5-min Rain = 0
KPA1 160506Z 19004KT M01/M02 A301 RMK A01 T10051022  RH  088%=      5-min Rain = 0
KPA1 160507Z 19004KT M01/M02 A301 RMK A01 T10061022  RH  089%=      5-min Rain = 0
KPA1 160508Z 19004KT M01/M02 A301 RMK A01 T10061023  RH  089%=      5-min Rain = 0
KPA1 160509Z 20004KT M01/M02 A301 RMK A01 T10071022  RH  089%=      5-min Rain = 0
KPA1 160510Z 19004KT M01/M02 A301 RMK A01 T10071022  RH  090%=      5-min Rain = 0
KPA1 160511Z 20004KT M01/M02 A301 RMK A01 T10061020  RH  090%=      5-min Rain = 0
KPA1 160512Z 19003KT M01/M02 A301 RMK A01 T10061020  RH  090%=      5-min Rain = 0
KPA1 160513Z 19003KT M01/M02 A301 RMK A01 T10051019  RH  090%=      5-min Rain = 0
KPA1 160514Z 19003KT M00/M02 A301 RMK A01 T10041018  RH  090%=      5-min Rain = 0
KPA1 160515Z 19003KT M00/M02 A301 RMK A01 T10031017  RH  090%=      5-min Rain = 0
KPA1 160516Z 19003KT M00/M02 A301 RMK A01 T10031017  RH  090%=      5-min Rain = 0
KPA1 160517Z 19004KT M00/M02 A301 RMK A01 T10031018  RH  090%=      5-min Rain = 0
KPA1 160518Z 20004KT M00/M02 A301 RMK A01 T10021017  RH  090%=      5-min Rain = 0
KPA1 160519Z 20003KT M00/M02 A301 RMK A01 T10021017  RH  090%=      5-min Rain = 0
KPA1 160520Z 20003KT M00/M02 A301 RMK A01 T10021018  RH  089%=      5-min Rain = 0
KPA1 160521Z 20003KT M00/M02 A301 RMK A01 T10021018  RH  089%=      5-min Rain = 0
KPA1 160522Z 20003KT M00/M02 A301 RMK A01 T10021018  RH  089%=      5-min Rain = 0
KPA1 160523Z 20003KT M00/M02 A301 RMK A01 T10021020  RH  088%=      5-min Rain = 0
KPA1 160524Z 20004KT M00/M02 A301 RMK A01 T10031020  RH  088%=      5-min Rain = 0
KPA1 160525Z 20004KT M00/M02 A301 RMK A01 T10031020  RH  088%=      5-min Rain = 0
KPA1 160526Z 21004KT M00/M02 A301 RMK A01 T10011019  RH  088%=      5-min Rain = 0
KPA1 160527Z 21004KT 00/02 A301 RMK A01 T00000-18  RH  088%=      5-min Rain = 0
KPA1 160528Z 20005KT 00/M02 A3009 RMK A01 T00011018  RH  087%=      5-min Rain = 0
KPA1 160529Z 21005KT 00/M02 A3009 RMK A01 T00021019  RH  086%=      5-min Rain = 0
KPA1 160530Z 21005KT 00/M02 A3009 RMK A01 T00021020  RH  086%=      5-min Rain = 0
KPA1 160531Z 21006KT 00/M02 A3009 RMK A01 T00011021  RH  085%=      5-min Rain = 0
KPA1 160532Z 21005KT 00/02 A3009 RMK A01 T00-00-22  RH  085%=      5-min Rain = 0
KPA1 160533Z 21006KT M00/M02 A3009 RMK A01 T10011023  RH  085%=      5-min Rain = 0
KPA1 160534Z 21006KT M00/M02 A3009 RMK A01 T10021023  RH  085%=      5-min Rain = 0
KPA1 160535Z 21006KT M00/M02 A3009 RMK A01 T10021024  RH  085%=      5-min Rain = 0
KPA1 160536Z 21005KT M00/M03 A3009 RMK A01 T10041025  RH  086%=      5-min Rain = 0
KPA1 160537Z 21005KT M00/M03 A3009 RMK A01 T10041025  RH  086%=      5-min Rain = 0
KPA1 160538Z 21005KT M01/M03 A3009 RMK A01 T10051025  RH  086%=      5-min Rain = 0
KPA1 160539Z 21005KT M01/M02 A3009 RMK A01 T10051024  RH  087%=      5-min Rain = 0
KPA1 160540Z 21004KT M01/M02 A3009 RMK A01 T10051024  RH  087%=      5-min Rain = 0
KPA1 160541Z 21004KT M01/M02 A3009 RMK A01 T10061024  RH  087%=      5-min Rain = 0
KPA1 160542Z 21004KT M01/M02 A3009 RMK A01 T10061024  RH  088%=      5-min Rain = 0
KPA1 160543Z 21004KT M01/M02 A3009 RMK A01 T10061024  RH  088%=      5-min Rain = 0
KPA1 160544Z 21005KT M01/M02 A3009 RMK A01 T10061024  RH  088%=      5-min Rain = 0
KPA1 160545Z 21004KT M01/M02 A3009 RMK A01 T10071024  RH  088%=      5-min Rain = 0
KPA1 160546Z 21005KT M01/M02 A3009 RMK A01 T10071024  RH  088%=      5-min Rain = 0
KPA1 160547Z 21005KT M01/M02 A3009 RMK A01 T10071024  RH  089%=      5-min Rain = 0
KPA1 160548Z 21005KT M01/M02 A3009 RMK A01 T10071023  RH  089%=      5-min Rain = 0
KPA1 160549Z 21005KT M01/M02 A3009 RMK A01 T10061022  RH  089%=      5-min Rain = 0
KPA1 160550Z 22005KT M00/M02 A3009 RMK A01 T10041021  RH  089%=      5-min Rain = 0
KPA1 160551Z 22005KT M00/M02 A3009 RMK A01 T10041021  RH  088%=      5-min Rain = 0
KPA1 160552Z 22005KT M00/M02 A3009 RMK A01 T10041022  RH  088%=      5-min Rain = 0
KPA1 160553Z 22005KT M00/M02 A3009 RMK A01 T10041023  RH  087%=      5-min Rain = 0
KPA1 160554Z 22005KT M00/M02 A3009 RMK A01 T10041023  RH  087%=      5-min Rain = 0
KPA1 160555Z 21005KT M00/M02 A3009 RMK A01 T10031023  RH  087%=      5-min Rain = 0
KPA1 160556Z 21005KT M00/M02 A3009 RMK A01 T10021021  RH  087%=      5-min Rain = 0
KPA1 160557Z 22004KT M00/M02 A3009 RMK A01 T10011019  RH  087%=      5-min Rain = 0
KPA1 160558Z 21004KT 00/M02 A3009 RMK A01 T00011019  RH  086%=      5-min Rain = 0
KPA1 160559Z 21004KT 00/M02 A3009 RMK A01 T00011021  RH  086%=      5-min Rain = 0

Page generated in 0.1684 seconds.